Wetterdaten: Montag, 27.04.2015
Datum Zeit Temp. Aussen +5cm Feuchte Auss Luftdruck Regen Sonnenschein Regendauer Solar Windben
27.04.2015 00:00 12,6 C 11,1 C 94 % 1003,9 hPa 0,2 l/m 0 min 2 min 0 W/m 14,6 km/h (3 Bft)
27.04.2015 00:02 12,6 C 11,1 C 94 % 1003,9 hPa 0,0 l/m 0 min 2 min 0 W/m 10,5 km/h (2 Bft)
27.04.2015 00:06 12,6 C 11,1 C 94 % 1003,9 hPa 0,0 l/m 0 min 2 min 0 W/m 16,7 km/h (3 Bft)
27.04.2015 00:08 12,5 C 11,1 C 94 % 1004,0 hPa 0,0 l/m 0 min 2 min 0 W/m 16,7 km/h (3 Bft)
27.04.2015 00:10 12,5 C 10,6 C 94 % 1004,0 hPa 0,0 l/m 0 min 2 min 0 W/m 18,8 km/h (3 Bft)
27.04.2015 00:12 12,4 C 10,6 C 94 % 1004,0 hPa 0,0 l/m 0 min 2 min 0 W/m 16,7 km/h (3 Bft)
27.04.2015 00:14 12,4 C 10,6 C 94 % 1004,0 hPa 0,2 l/m 0 min 2 min 0 W/m 20,9 km/h (4 Bft)
27.04.2015 00:16 12,3 C 10,6 C 94 % 1004,0 hPa 0,0 l/m 0 min 2 min 0 W/m 18,8 km/h (3 Bft)
27.04.2015 00:18 12,3 C 10,6 C 94 % 1004,0 hPa 0,2 l/m 0 min 2 min 0 W/m 16,7 km/h (3 Bft)
27.04.2015 00:20 12,2 C 10,6 C 94 % 1004,0 hPa 0,2 l/m 0 min 2 min 0 W/m 20,9 km/h (4 Bft)
27.04.2015 00:22 12,2 C 10,6 C 94 % 1004,0 hPa 0,0 l/m 0 min 2 min 0 W/m 18,8 km/h (3 Bft)
27.04.2015 00:24 12,2 C 10,6 C 94 % 1004,0 hPa 0,2 l/m 0 min 2 min 0 W/m 20,9 km/h (4 Bft)
27.04.2015 00:26 12,1 C 10,6 C 94 % 1003,9 hPa 0,0 l/m 0 min 2 min 0 W/m 18,8 km/h (3 Bft)
27.04.2015 00:28 12,1 C 10,6 C 94 % 1003,9 hPa 0,2 l/m 0 min 2 min 0 W/m 23,0 km/h (4 Bft)
27.04.2015 00:30 12,0 C 10,6 C 94 % 1003,9 hPa 0,0 l/m 0 min 2 min 0 W/m 23,0 km/h (4 Bft)
27.04.2015 00:32 11,9 C 10,6 C 95 % 1003,9 hPa 0,2 l/m 0 min 2 min 0 W/m 18,8 km/h (3 Bft)
27.04.2015 00:34 11,9 C 10,6 C 95 % 1003,9 hPa 0,0 l/m 0 min 2 min 0 W/m 16,7 km/h (3 Bft)
27.04.2015 00:36 11,8 C 10,6 C 95 % 1003,9 hPa 0,2 l/m 0 min 2 min 0 W/m 16,7 km/h (3 Bft)
27.04.2015 00:38 11,8 C 10,6 C 95 % 1003,9 hPa 0,2 l/m 0 min 2 min 0 W/m 14,6 km/h (3 Bft)
27.04.2015 00:40 11,8 C 10,6 C 95 % 1003,9 hPa 0,2 l/m 0 min 2 min 0 W/m 16,7 km/h (3 Bft)
27.04.2015 00:42 11,7 C 10,0 C 95 % 1003,9 hPa 0,4 l/m 0 min 2 min 0 W/m 14,6 km/h (3 Bft)
27.04.2015 00:44 11,7 C 10,6 C 95 % 1003,9 hPa 0,0 l/m 0 min 2 min 0 W/m 14,6 km/h (3 Bft)
27.04.2015 00:46 11,7 C 10,0 C 95 % 1003,8 hPa 0,2 l/m 0 min 2 min 0 W/m 18,8 km/h (3 Bft)
27.04.2015 00:48 11,6 C 10,0 C 95 % 1003,8 hPa 0,2 l/m 0 min 2 min 0 W/m 14,6 km/h (3 Bft)
27.04.2015 00:50 11,6 C 10,0 C 95 % 1003,7 hPa 0,2 l/m 0 min 2 min 0 W/m 14,6 km/h (3 Bft)
27.04.2015 00:52 11,6 C 10,0 C 95 % 1003,7 hPa 0,2 l/m 0 min 2 min 0 W/m 18,8 km/h (3 Bft)
27.04.2015 00:54 11,6 C 10,0 C 95 % 1003,8 hPa 0,0 l/m 0 min 2 min 0 W/m 14,6 km/h (3 Bft)
27.04.2015 00:56 11,5 C 10,0 C 95 % 1003,7 hPa 0,2 l/m 0 min 2 min 0 W/m 10,5 km/h (2 Bft)
27.04.2015 00:58 11,5 C 10,0 C 95 % 1003,8 hPa 0,0 l/m 0 min 2 min 0 W/m 12,6 km/h (3 Bft)
27.04.2015 01:00 11,5 C 10,0 C 95 % 1003,8 hPa 0,2 l/m 0 min 2 min 0 W/m 12,6 km/h (3 Bft)
27.04.2015 01:02 11,4 C 10,0 C 95 % 1003,8 hPa 0,0 l/m 0 min 2 min 0 W/m 10,5 km/h (2 Bft)
27.04.2015 01:04 11,4 C 10,0 C 95 % 1003,8 hPa 0,2 l/m 0 min 2 min 0 W/m 12,6 km/h (3 Bft)
27.04.2015 01:06 11,4 C 10,0 C 95 % 1003,7 hPa 0,2 l/m 0 min 2 min 0 W/m 18,8 km/h (3 Bft)
27.04.2015 01:08 11,4 C 10,0 C 95 % 1003,7 hPa 0,4 l/m 0 min 2 min 0 W/m 14,6 km/h (3 Bft)
27.04.2015 01:10 11,4 C 10,0 C 96 % 1003,6 hPa 0,0 l/m 0 min 2 min 0 W/m 18,8 km/h (3 Bft)
27.04.2015 01:12 11,3 C 10,0 C 96 % 1003,7 hPa 0,2 l/m 0 min 2 min 0 W/m 16,7 km/h (3 Bft)
27.04.2015 01:14 11,3 C 10,0 C 96 % 1003,7 hPa 0,2 l/m 0 min 2 min 0 W/m 16,7 km/h (3 Bft)
27.04.2015 01:16 11,3 C 10,0 C 96 % 1003,7 hPa 0,2 l/m 0 min 2 min 0 W/m 8,4 km/h (2 Bft)
27.04.2015 01:18 11,3 C 10,0 C 96 % 1003,7 hPa 0,2 l/m 0 min 2 min 0 W/m 12,6 km/h (3 Bft)
27.04.2015 01:20 11,3 C 10,0 C 96 % 1003,7 hPa 0,0 l/m 0 min 2 min 0 W/m 18,8 km/h (3 Bft)
27.04.2015 01:22 11,2 C 10,0 C 96 % 1003,8 hPa 0,0 l/m 0 min 2 min 0 W/m 16,7 km/h (3 Bft)
27.04.2015 01:24 11,2 C 10,0 C 96 % 1003,7 hPa 0,2 l/m 0 min 2 min 0 W/m 23,0 km/h (4 Bft)
27.04.2015 01:26 11,2 C 10,0 C 96 % 1003,7 hPa 0,2 l/m 0 min 2 min 0 W/m 27,2 km/h (4 Bft)
27.04.2015 01:28 11,2 C 10,0 C 96 % 1003,6 hPa 0,0 l/m 0 min 2 min 0 W/m 16,7 km/h (3 Bft)
27.04.2015 01:30 11,1 C 10,0 C 96 % 1003,6 hPa 0,2 l/m 0 min 2 min 0 W/m 6,3 km/h (2 Bft)
27.04.2015 01:32 11,1 C 10,0 C 96 % 1003,6 hPa 0,2 l/m 0 min 2 min 0 W/m 10,5 km/h (2 Bft)
27.04.2015 01:34 11,1 C 10,0 C 96 % 1003,6 hPa 0,0 l/m 0 min 2 min 0 W/m 8,4 km/h (2 Bft)
27.04.2015 01:36 11,1 C 10,0 C 96 % 1003,5 hPa 0,2 l/m 0 min 2 min 0 W/m 10,5 km/h (2 Bft)
27.04.2015 01:38 11,1 C 10,0 C 96 % 1003,6 hPa 0,0 l/m 0 min 2 min 0 W/m 20,9 km/h (4 Bft)
27.04.2015 01:40 11,1 C 10,0 C 96 % 1003,6 hPa 0,2 l/m 0 min 2 min 0 W/m 14,6 km/h (3 Bft)
27.04.2015 01:42 11,1 C 10,0 C 96 % 1003,6 hPa 0,0 l/m 0 min 2 min 0 W/m 8,4 km/h (2 Bft)
27.04.2015 01:44 11,0 C 10,0 C 96 % 1003,5 hPa 0,0 l/m 0 min 2 min 0 W/m 14,6 km/h (3 Bft)
27.04.2015 01:46 11,0 C 10,0 C 96 % 1003,5 hPa 0,2 l/m 0 min 2 min 0 W/m 10,5 km/h (2 Bft)
27.04.2015 01:48 11,0 C 10,0 C 96 % 1003,5 hPa 0,0 l/m 0 min 2 min 0 W/m 12,6 km/h (3 Bft)
27.04.2015 01:50 11,0 C 10,0 C 96 % 1003,5 hPa 0,2 l/m 0 min 2 min 0 W/m 16,7 km/h (3 Bft)
27.04.2015 01:52 11,0 C 10,0 C 96 % 1003,5 hPa 0,2 l/m 0 min 2 min 0 W/m 10,5 km/h (2 Bft)
27.04.2015 01:54 10,9 C 10,0 C 96 % 1003,5 hPa 0,2 l/m 0 min 2 min 0 W/m 14,6 km/h (3 Bft)
27.04.2015 01:56 10,9 C 10,0 C 96 % 1003,5 hPa 0,0 l/m 0 min 2 min 0 W/m 16,7 km/h (3 Bft)
27.04.2015 01:58 10,9 C 10,0 C 96 % 1003,5 hPa 0,2 l/m 0 min 2 min 0 W/m 14,6 km/h (3 Bft)
27.04.2015 02:00 10,9 C 10,0 C 96 % 1003,5 hPa 0,2 l/m 0 min 2 min 0 W/m 14,6 km/h (3 Bft)
27.04.2015 02:02 10,9 C 10,0 C 96 % 1003,4 hPa 0,0 l/m 0 min 2 min 0 W/m 10,5 km/h (2 Bft)
27.04.2015 02:04 10,9 C 10,0 C 96 % 1003,5 hPa 0,0 l/m 0 min 2 min 0 W/m 10,5 km/h (2 Bft)
27.04.2015 02:06 10,9 C 10,0 C 96 % 1003,5 hPa 0,2 l/m 0 min 2 min 0 W/m 10,5 km/h (2 Bft)
27.04.2015 02:08 10,9 C 10,0 C 96 % 1003,4 hPa 0,0 l/m 0 min 2 min 0 W/m 12,6 km/h (3 Bft)
27.04.2015 02:10 10,9 C 10,0 C 96 % 1003,3 hPa 0,0 l/m 0 min 2 min 0 W/m 16,7 km/h (3 Bft)
27.04.2015 02:12 10,8 C 10,0 C 96 % 1003,3 hPa 0,0 l/m 0 min 2 min 0 W/m 16,7 km/h (3 Bft)
27.04.2015 02:14 10,8 C 10,0 C 96 % 1003,3 hPa 0,0 l/m 0 min 2 min 0 W/m 10,5 km/h (2 Bft)
27.04.2015 02:16 10,8 C 10,0 C 96 % 1003,3 hPa 0,2 l/m 0 min 2 min 0 W/m 12,6 km/h (3 Bft)
27.04.2015 02:18 10,8 C 10,0 C 97 % 1003,3 hPa 0,0 l/m 0 min 2 min 0 W/m 16,7 km/h (3 Bft)
27.04.2015 02:20 10,8 C 10,0 C 97 % 1003,3 hPa 0,0 l/m 0 min 2 min 0 W/m 12,6 km/h (3 Bft)
27.04.2015 02:22 10,8 C 10,0 C 97 % 1003,3 hPa 0,0 l/m 0 min 2 min 0 W/m 16,7 km/h (3 Bft)
27.04.2015 02:24 10,8 C 10,0 C 97 % 1003,3 hPa 0,0 l/m 0 min 2 min 0 W/m 14,6 km/h (3 Bft)
27.04.2015 02:26 10,8 C 10,0 C 97 % 1003,3 hPa 0,0 l/m 0 min 2 min 0 W/m 14,6 km/h (3 Bft)
27.04.2015 02:28 10,7 C 9,4 C 97 % 1003,3 hPa 0,2 l/m 0 min 2 min 0 W/m 14,6 km/h (3 Bft)
27.04.2015 02:30 10,7 C 9,4 C 97 % 1003,3 hPa 0,0 l/m 0 min 2 min 0 W/m 16,7 km/h (3 Bft)
27.04.2015 02:32 10,7 C 9,4 C 97 % 1003,2 hPa 0,2 l/m 0 min 2 min 0 W/m 16,7 km/h (3 Bft)
27.04.2015 02:34 10,7 C 9,4 C 97 % 1003,3 hPa 0,0 l/m 0 min 2 min 0 W/m 14,6 km/h (3 Bft)
27.04.2015 02:36 10,7 C 9,4 C 97 % 1003,2 hPa 0,0 l/m 0 min 2 min 0 W/m 14,6 km/h (3 Bft)
27.04.2015 02:38 10,7 C 9,4 C 97 % 1003,2 hPa 0,0 l/m 0 min 2 min 0 W/m 18,8 km/h (3 Bft)
27.04.2015 02:40 10,6 C 9,4 C 97 % 1003,2 hPa 0,0 l/m 0 min 2 min 0 W/m 16,7 km/h (3 Bft)
27.04.2015 02:42 10,6 C 9,4 C 97 % 1003,2 hPa 0,2 l/m 0 min 2 min 0 W/m 16,7 km/h (3 Bft)
27.04.2015 02:44 10,6 C 9,4 C 97 % 1003,2 hPa 0,0 l/m 0 min 2 min 0 W/m 18,8 km/h (3 Bft)
27.04.2015 02:46 10,5 C 9,4 C 97 % 1003,1 hPa 0,0 l/m 0 min 2 min 0 W/m 14,6 km/h (3 Bft)
27.04.2015 02:48 10,5 C 9,4 C 97 % 1003,1 hPa 0,2 l/m 0 min 2 min 0 W/m 23,0 km/h (4 Bft)
27.04.2015 02:50 10,4 C 9,4 C 97 % 1003,1 hPa 0,0 l/m 0 min 2 min 0 W/m 16,7 km/h (3 Bft)
27.04.2015 02:52 10,4 C 9,4 C 97 % 1003,1 hPa 0,0 l/m 0 min 2 min 0 W/m 12,6 km/h (3 Bft)
27.04.2015 02:54 10,4 C 9,4 C 97 % 1003,1 hPa 0,0 l/m 0 min 2 min 0 W/m 23,0 km/h (4 Bft)
27.04.2015 02:56 10,4 C 9,4 C 97 % 1003,1 hPa 0,2 l/m 0 min 2 min 0 W/m 20,9 km/h (4 Bft)
27.04.2015 02:58 10,4 C 9,4 C 97 % 1003,1 hPa 0,0 l/m 0 min 2 min 0 W/m 14,6 km/h (3 Bft)
27.04.2015 03:00 10,4 C 9,4 C 97 % 1003,2 hPa 0,0 l/m 0 min 2 min 0 W/m 16,7 km/h (3 Bft)
27.04.2015 03:02 10,4 C 9,4 C 97 % 1003,1 hPa 0,0 l/m 0 min 2 min 0 W/m 16,7 km/h (3 Bft)
27.04.2015 03:04 10,3 C 9,4 C 97 % 1003,1 hPa 0,0 l/m 0 min 2 min 0 W/m 14,6 km/h (3 Bft)
27.04.2015 03:06 10,3 C 9,4 C 97 % 1003,1 hPa 0,0 l/m 0 min 2 min 0 W/m 18,8 km/h (3 Bft)
27.04.2015 03:08 10,3 C 9,4 C 97 % 1003,1 hPa 0,2 l/m 0 min 2 min 0 W/m 18,8 km/h (3 Bft)
27.04.2015 03:10 10,3 C 9,4 C 97 % 1003,1 hPa 0,0 l/m 0 min 2 min 0 W/m 12,6 km/h (3 Bft)
27.04.2015 03:12 10,3 C 9,4 C 97 % 1003,1 hPa 0,0 l/m 0 min 2 min 0 W/m 16,7 km/h (3 Bft)
27.04.2015 03:14 10,3 C 9,4 C 97 % 1003,1 hPa 0,0 l/m 0 min 2 min 0 W/m 14,6 km/h (3 Bft)
27.04.2015 03:16 10,3 C 9,4 C 97 % 1003,1 hPa 0,0 l/m 0 min 2 min 0 W/m 16,7 km/h (3 Bft)
27.04.2015 03:18 10,3 C 9,4 C 97 % 1003,1 hPa 0,2 l/m 0 min 2 min 0 W/m 16,7 km/h (3 Bft)
27.04.2015 03:20 10,2 C 9,4 C 97 % 1003,1 hPa 0,0 l/m 0 min 2 min 0 W/m 14,6 km/h (3 Bft)
27.04.2015 03:22 10,2 C 9,4 C 97 % 1003,1 hPa 0,0 l/m 0 min 2 min 0 W/m 18,8 km/h (3 Bft)
27.04.2015 03:24 10,2 C 9,4 C 97 % 1003,1 hPa 0,0 l/m 0 min 2 min 0 W/m 14,6 km/h (3 Bft)
27.04.2015 03:26 10,2 C 9,4 C 97 % 1003,1 hPa 0,2 l/m 0 min 2 min 0 W/m 16,7 km/h (3 Bft)
27.04.2015 03:28 10,2 C 9,4 C 97 % 1003,1 hPa 0,0 l/m 0 min 2 min 0 W/m 18,8 km/h (3 Bft)
27.04.2015 03:30 10,2 C 9,4 C 97 % 1003,1 hPa 0,0 l/m 0 min 2 min 0 W/m 16,7 km/h (3 Bft)
27.04.2015 03:32 10,1 C 9,4 C 97 % 1003,1 hPa 0,0 l/m 0 min 2 min 0 W/m 16,7 km/h (3 Bft)
27.04.2015 03:34 10,1 C 9,4 C 97 % 1003,0 hPa 0,0 l/m 0 min 2 min 0 W/m 18,8 km/h (3 Bft)
27.04.2015 03:36 10,1 C 8,9 C 97 % 1003,1 hPa 0,0 l/m 0 min 2 min 0 W/m 18,8 km/h (3 Bft)
27.04.2015 03:38 10,1 C 8,9 C 97 % 1003,1 hPa 0,2 l/m 0 min 2 min 0 W/m 14,6 km/h (3 Bft)
27.04.2015 03:40 10,1 C 9,4 C 97 % 1003,1 hPa 0,0 l/m 0 min 2 min 0 W/m 14,6 km/h (3 Bft)
27.04.2015 03:42 10,0 C 8,9 C 97 % 1003,2 hPa 0,0 l/m 0 min 2 min 0 W/m 23,0 km/h (4 Bft)
27.04.2015 03:44 9,9 C 8,9 C 97 % 1003,1 hPa 0,0 l/m 0 min 2 min 0 W/m 23,0 km/h (4 Bft)
27.04.2015 03:46 9,9 C 8,9 C 97 % 1003,1 hPa 0,0 l/m 0 min 2 min 0 W/m 12,6 km/h (3 Bft)
27.04.2015 03:48 9,9 C 8,9 C 97 % 1003,1 hPa 0,0 l/m 0 min 2 min 0 W/m 16,7 km/h (3 Bft)
27.04.2015 03:50 9,8 C 8,9 C 97 % 1003,1 hPa 0,2 l/m 0 min 2 min 0 W/m 27,2 km/h (4 Bft)
27.04.2015 03:52 9,8 C 8,9 C 97 % 1003,1 hPa 0,0 l/m 0 min 2 min 0 W/m 27,2 km/h (4 Bft)
27.04.2015 03:54 9,8 C 8,9 C 97 % 1003,1 hPa 0,0 l/m 0 min 2 min 0 W/m 23,0 km/h (4 Bft)
27.04.2015 03:56 9,7 C 8,9 C 97 % 1003,1 hPa 0,0 l/m 0 min 2 min 0 W/m 20,9 km/h (4 Bft)
27.04.2015 03:58 9,7 C 8,9 C 97 % 1003,1 hPa 0,0 l/m 0 min 2 min 0 W/m 25,1 km/h (4 Bft)
27.04.2015 04:00 9,7 C 8,9 C 97 % 1003,1 hPa 0,0 l/m 0 min 2 min 0 W/m 33,5 km/h (5 Bft)
27.04.2015 04:05 9,6 C 8,9 C 97 % 1003,1 hPa 0,2 l/m 0 min 2 min 0 W/m 25,1 km/h (4 Bft)
27.04.2015 04:06 9,6 C 8,9 C 97 % 1003,1 hPa 0,0 l/m 0 min 1 min 0 W/m 18,8 km/h (3 Bft)
27.04.2015 04:08 9,6 C 8,9 C 97 % 1003,1 hPa 0,0 l/m 0 min 2 min 0 W/m 25,1 km/h (4 Bft)
27.04.2015 04:10 9,5 C 8,9 C 97 % 1003,1 hPa 0,0 l/m 0 min 2 min 0 W/m 18,8 km/h (3 Bft)
27.04.2015 04:12 9,5 C 8,9 C 97 % 1003,1 hPa 0,0 l/m 0 min 2 min 0 W/m 18,8 km/h (3 Bft)
27.04.2015 04:14 9,4 C 8,9 C 97 % 1003,1 hPa 0,0 l/m 0 min 2 min 0 W/m 27,2 km/h (4 Bft)
27.04.2015 04:16 9,4 C 8,9 C 97 % 1003,2 hPa 0,0 l/m 0 min 2 min 0 W/m 20,9 km/h (4 Bft)
27.04.2015 04:18 9,4 C 8,9 C 97 % 1003,1 hPa 0,0 l/m 0 min 2 min 0 W/m 23,0 km/h (4 Bft)
27.04.2015 04:20 9,4 C 8,3 C 97 % 1003,1 hPa 0,0 l/m 0 min 2 min 0 W/m 20,9 km/h (4 Bft)
27.04.2015 04:22 9,3 C 8,9 C 97 % 1003,1 hPa 0,0 l/m 0 min 2 min 0 W/m 18,8 km/h (3 Bft)
27.04.2015 04:24 9,3 C 8,9 C 97 % 1003,1 hPa 0,0 l/m 0 min 2 min 0 W/m 23,0 km/h (4 Bft)
27.04.2015 04:26 9,3 C 8,9 C 97 % 1003,2 hPa 0,0 l/m 0 min 2 min 0 W/m 18,8 km/h (3 Bft)
27.04.2015 04:28 9,2 C 8,3 C 97 % 1003,2 hPa 0,0 l/m 0 min 2 min 0 W/m 23,0 km/h (4 Bft)
27.04.2015 04:30 9,2 C 8,3 C 97 % 1003,3 hPa 0,0 l/m 0 min 2 min 0 W/m 29,3 km/h (5 Bft)
27.04.2015 04:32 9,2 C 8,3 C 97 % 1003,2 hPa 0,0 l/m 0 min 2 min 0 W/m 25,1 km/h (4 Bft)
27.04.2015 04:34 9,2 C 8,3 C 97 % 1003,2 hPa 0,0 l/m 0 min 2 min 0 W/m 25,1 km/h (4 Bft)
27.04.2015 04:36 9,1 C 8,3 C 97 % 1003,2 hPa 0,0 l/m 0 min 2 min 0 W/m 20,9 km/h (4 Bft)
27.04.2015 04:38 9,1 C 8,3 C 97 % 1003,2 hPa 0,0 l/m 0 min 2 min 0 W/m 18,8 km/h (3 Bft)
27.04.2015 04:40 9,1 C 8,3 C 97 % 1003,3 hPa 0,0 l/m 0 min 2 min 0 W/m 16,7 km/h (3 Bft)
27.04.2015 04:42 9,1 C 8,3 C 97 % 1003,3 hPa 0,0 l/m 0 min 2 min 0 W/m 16,7 km/h (3 Bft)
27.04.2015 04:44 9,1 C 8,9 C 97 % 1003,3 hPa 0,0 l/m 0 min 2 min 0 W/m 14,6 km/h (3 Bft)
27.04.2015 04:46 9,1 C 8,9 C 97 % 1003,3 hPa 0,0 l/m 0 min 2 min 0 W/m 18,8 km/h (3 Bft)
27.04.2015 04:48 9,1 C 8,3 C 97 % 1003,4 hPa 0,0 l/m 0 min 2 min 0 W/m 14,6 km/h (3 Bft)
27.04.2015 04:50 9,1 C 8,3 C 97 % 1003,4 hPa 0,0 l/m 0 min 2 min 0 W/m 20,9 km/h (4 Bft)
27.04.2015 04:52 9,1 C 8,3 C 97 % 1003,4 hPa 0,0 l/m 0 min 2 min 0 W/m 25,1 km/h (4 Bft)
27.04.2015 04:54 9,1 C 8,3 C 97 % 1003,4 hPa 0,0 l/m 0 min 2 min 0 W/m 18,8 km/h (3 Bft)
27.04.2015 04:56 9,0 C 8,3 C 97 % 1003,4 hPa 0,0 l/m 0 min 2 min 0 W/m 16,7 km/h (3 Bft)
27.04.2015 04:58 8,9 C 8,3 C 97 % 1003,5 hPa 0,0 l/m 0 min 2 min 0 W/m 23,0 km/h (4 Bft)
27.04.2015 05:00 8,9 C 8,3 C 97 % 1003,5 hPa 0,0 l/m 0 min 2 min 0 W/m 23,0 km/h (4 Bft)
27.04.2015 05:02 8,9 C 8,3 C 97 % 1003,5 hPa 0,0 l/m 0 min 2 min 0 W/m 37,7 km/h (5 Bft)
27.04.2015 05:04 8,8 C 8,3 C 97 % 1003,6 hPa 0,0 l/m 0 min 2 min 0 W/m 29,3 km/h (5 Bft)
27.04.2015 05:06 8,8 C 8,3 C 97 % 1003,6 hPa 0,2 l/m 0 min 2 min 0 W/m 25,1 km/h (4 Bft)
27.04.2015 05:08 8,7 C 8,3 C 97 % 1003,6 hPa 0,0 l/m 0 min 2 min 0 W/m 23,0 km/h (4 Bft)
27.04.2015 05:10 8,7 C 8,3 C 97 % 1003,6 hPa 0,0 l/m 0 min 2 min 0 W/m 23,0 km/h (4 Bft)
27.04.2015 05:12 8,7 C 8,3 C 97 % 1003,6 hPa 0,0 l/m 0 min 2 min 0 W/m 18,8 km/h (3 Bft)
27.04.2015 05:14 8,7 C 8,3 C 97 % 1003,6 hPa 0,0 l/m 0 min 2 min 0 W/m 12,6 km/h (3 Bft)
27.04.2015 05:16 8,7 C 8,3 C 97 % 1003,6 hPa 0,0 l/m 0 min 2 min 0 W/m 18,8 km/h (3 Bft)
27.04.2015 05:18 8,7 C 8,3 C 97 % 1003,6 hPa 0,0 l/m 0 min 2 min 0 W/m 23,0 km/h (4 Bft)
27.04.2015 05:20 8,7 C 8,3 C 97 % 1003,4 hPa 0,0 l/m 0 min 2 min 0 W/m 20,9 km/h (4 Bft)
27.04.2015 05:22 8,7 C 8,3 C 97 % 1003,4 hPa 0,0 l/m 0 min 2 min 0 W/m 18,8 km/h (3 Bft)
27.04.2015 05:24 8,7 C 8,3 C 97 % 1003,5 hPa 0,0 l/m 0 min 2 min 0 W/m 18,8 km/h (3 Bft)
27.04.2015 05:26 8,7 C 8,3 C 97 % 1003,6 hPa 0,0 l/m 0 min 2 min 0 W/m 20,9 km/h (4 Bft)
27.04.2015 05:28 8,6 C 8,3 C 97 % 1003,5 hPa 0,0 l/m 0 min 2 min 0 W/m 18,8 km/h (3 Bft)
27.04.2015 05:30 8,6 C 8,3 C 97 % 1003,5 hPa 0,0 l/m 0 min 2 min 0 W/m 18,8 km/h (3 Bft)
27.04.2015 05:32 8,6 C 8,3 C 97 % 1003,6 hPa 0,0 l/m 0 min 2 min 0 W/m 20,9 km/h (4 Bft)
27.04.2015 05:34 8,6 C 7,8 C 97 % 1003,6 hPa 0,0 l/m 0 min 2 min 0 W/m 20,9 km/h (4 Bft)
27.04.2015 05:36 8,5 C 7,8 C 97 % 1003,6 hPa 0,0 l/m 0 min 2 min 0 W/m 18,8 km/h (3 Bft)
27.04.2015 05:38 8,5 C 7,8 C 97 % 1003,6 hPa 0,0 l/m 0 min 2 min 0 W/m 14,6 km/h (3 Bft)
27.04.2015 05:40 8,4 C 7,8 C 97 % 1003,6 hPa 0,0 l/m 0 min 2 min 0 W/m 20,9 km/h (4 Bft)
27.04.2015 05:42 8,4 C 7,8 C 97 % 1003,6 hPa 0,0 l/m 0 min 2 min 0 W/m 20,9 km/h (4 Bft)
27.04.2015 05:44 8,4 C 7,8 C 97 % 1003,7 hPa 0,0 l/m 0 min 2 min 0 W/m 16,7 km/h (3 Bft)
27.04.2015 05:46 8,4 C 7,8 C 97 % 1003,6 hPa 0,0 l/m 0 min 2 min 0 W/m 20,9 km/h (4 Bft)
27.04.2015 05:48 8,4 C 7,8 C 97 % 1003,7 hPa 0,0 l/m 0 min 2 min 0 W/m 18,8 km/h (3 Bft)
27.04.2015 05:50 8,4 C 7,8 C 97 % 1003,7 hPa 0,0 l/m 0 min 2 min 0 W/m 27,2 km/h (4 Bft)
27.04.2015 05:52 8,3 C 7,8 C 97 % 1003,8 hPa 0,0 l/m 0 min 2 min 0 W/m 25,1 km/h (4 Bft)
27.04.2015 05:54 8,3 C 7,8 C 97 % 1003,7 hPa 0,0 l/m 0 min 2 min 0 W/m 23,0 km/h (4 Bft)
27.04.2015 05:56 8,3 C 7,8 C 97 % 1003,7 hPa 0,0 l/m 0 min 2 min 0 W/m 18,8 km/h (3 Bft)
27.04.2015 05:58 8,3 C 7,8 C 97 % 1003,7 hPa 0,0 l/m 0 min 2 min 0 W/m 14,6 km/h (3 Bft)
27.04.2015 06:00 8,2 C 7,8 C 97 % 1003,8 hPa 0,2 l/m 0 min 2 min 0 W/m 29,3 km/h (5 Bft)
27.04.2015 06:02 8,2 C 7,8 C 97 % 1003,8 hPa 0,0 l/m 0 min 2 min 0 W/m 27,2 km/h (4 Bft)
27.04.2015 06:06 8,1 C 7,8 C 97 % 1003,8 hPa 0,0 l/m 0 min 2 min 0 W/m 25,1 km/h (4 Bft)
27.04.2015 06:08 8,1 C 7,8 C 97 % 1003,8 hPa 0,0 l/m 0 min 2 min 0 W/m 25,1 km/h (4 Bft)
27.04.2015 06:10 8,0 C 7,8 C 97 % 1003,8 hPa 0,0 l/m 0 min 2 min 0 W/m 27,2 km/h (4 Bft)
27.04.2015 06:12 8,0 C 7,2 C 97 % 1003,8 hPa 0,0 l/m 0 min 2 min 0 W/m 25,1 km/h (4 Bft)
27.04.2015 06:14 7,9 C 7,2 C 97 % 1003,8 hPa 0,0 l/m 0 min 2 min 0 W/m 25,1 km/h (4 Bft)
27.04.2015 06:16 7,9 C 7,8 C 97 % 1003,8 hPa 0,0 l/m 0 min 2 min 0 W/m 20,9 km/h (4 Bft)
27.04.2015 06:18 7,9 C 7,8 C 97 % 1003,9 hPa 0,0 l/m 0 min 2 min 0 W/m 23,0 km/h (4 Bft)
27.04.2015 06:20 7,9 C 7,8 C 97 % 1003,8 hPa 0,0 l/m 0 min 2 min 0 W/m 16,7 km/h (3 Bft)
27.04.2015 06:22 7,9 C 7,8 C 97 % 1003,9 hPa 0,0 l/m 0 min 2 min 0 W/m 16,7 km/h (3 Bft)
27.04.2015 06:24 7,9 C 7,8 C 97 % 1003,9 hPa 0,0 l/m 0 min 0 min 0 W/m 16,7 km/h (3 Bft)
27.04.2015 06:26 7,9 C 7,8 C 97 % 1003,9 hPa 0,0 l/m 0 min 0 min 0 W/m 16,7 km/h (3 Bft)
27.04.2015 06:28 7,9 C 7,8 C 97 % 1003,9 hPa 0,0 l/m 0 min 2 min 0 W/m 25,1 km/h (4 Bft)
27.04.2015 06:30 7,9 C 7,8 C 97 % 1004,0 hPa 0,0 l/m 0 min 0 min 0 W/m 16,7 km/h (3 Bft)
27.04.2015 06:32 7,9 C 7,8 C 97 % 1004,1 hPa 0,0 l/m 0 min 2 min 0 W/m 14,6 km/h (3 Bft)
27.04.2015 06:34 7,9 C 7,8 C 97 % 1004,1 hPa 0,0 l/m 0 min 2 min 0 W/m 18,8 km/h (3 Bft)
27.04.2015 06:36 7,8 C 7,8 C 97 % 1004,1 hPa 0,0 l/m 0 min 2 min 0 W/m 20,9 km/h (4 Bft)
27.04.2015 06:38 7,8 C 7,8 C 97 % 1004,1 hPa 0,0 l/m 0 min 2 min 0 W/m 12,6 km/h (3 Bft)
27.04.2015 06:40 7,8 C 7,2 C 97 % 1004,2 hPa 0,0 l/m 0 min 2 min 4 W/m 23,0 km/h (4 Bft)
27.04.2015 06:42 7,8 C 7,2 C 97 % 1004,3 hPa 0,0 l/m 0 min 2 min 5 W/m 18,8 km/h (3 Bft)
27.04.2015 06:44 7,7 C 7,2 C 97 % 1004,2 hPa 0,0 l/m 0 min 2 min 5 W/m 14,6 km/h (3 Bft)
27.04.2015 06:46 7,7 C 7,2 C 97 % 1004,3 hPa 0,0 l/m 0 min 2 min 7 W/m 27,2 km/h (4 Bft)
27.04.2015 06:48 7,7 C 7,2 C 97 % 1004,3 hPa 0,0 l/m 0 min 2 min 7 W/m 27,2 km/h (4 Bft)
27.04.2015 06:50 7,7 C 7,2 C 97 % 1004,3 hPa 0,0 l/m 0 min 2 min 8 W/m 20,9 km/h (4 Bft)
27.04.2015 06:52 7,6 C 7,2 C 97 % 1004,4 hPa 0,0 l/m 0 min 2 min 9 W/m 18,8 km/h (3 Bft)
27.04.2015 06:54 7,6 C 7,2 C 97 % 1004,4 hPa 0,0 l/m 0 min 2 min 11 W/m 25,1 km/h (4 Bft)
27.04.2015 06:56 7,6 C 7,2 C 97 % 1004,4 hPa 0,0 l/m 0 min 2 min 11 W/m 27,2 km/h (4 Bft)
27.04.2015 06:58 7,5 C 7,2 C 97 % 1004,4 hPa 0,0 l/m 0 min 2 min 11 W/m 29,3 km/h (5 Bft)
27.04.2015 07:00 7,4 C 7,2 C 97 % 1004,5 hPa 0,0 l/m 0 min 2 min 11 W/m 25,1 km/h (4 Bft)
27.04.2015 07:02 7,4 C 7,2 C 97 % 1004,6 hPa 0,0 l/m 0 min 2 min 11 W/m 27,2 km/h (4 Bft)
27.04.2015 07:04 7,4 C 7,2 C 97 % 1004,5 hPa 0,0 l/m 0 min 2 min 11 W/m 25,1 km/h (4 Bft)
27.04.2015 07:06 7,4 C 7,2 C 97 % 1004,5 hPa 0,0 l/m 0 min 2 min 11 W/m 25,1 km/h (4 Bft)
27.04.2015 07:08 7,3 C 7,2 C 97 % 1004,5 hPa 0,0 l/m 0 min 2 min 11 W/m 18,8 km/h (3 Bft)
27.04.2015 07:10 7,3 C 7,2 C 97 % 1004,6 hPa 0,0 l/m 0 min 2 min 11 W/m 23,0 km/h (4 Bft)
27.04.2015 07:12 7,3 C 7,2 C 97 % 1004,7 hPa 0,0 l/m 0 min 2 min 13 W/m 16,7 km/h (3 Bft)
27.04.2015 07:14 7,3 C 7,2 C 97 % 1004,7 hPa 0,0 l/m 0 min 2 min 13 W/m 18,8 km/h (3 Bft)
27.04.2015 07:16 7,3 C 7,2 C 97 % 1004,8 hPa 0,0 l/m 0 min 2 min 12 W/m 14,6 km/h (3 Bft)
27.04.2015 07:18 7,3 C 7,2 C 97 % 1004,9 hPa 0,0 l/m 0 min 2 min 12 W/m 23,0 km/h (4 Bft)
27.04.2015 07:20 7,3 C 7,2 C 97 % 1004,8 hPa 0,0 l/m 0 min 2 min 13 W/m 23,0 km/h (4 Bft)
27.04.2015 07:22 7,3 C 7,2 C 97 % 1004,8 hPa 0,0 l/m 0 min 2 min 13 W/m 23,0 km/h (4 Bft)
27.04.2015 07:24 7,3 C 7,2 C 97 % 1004,8 hPa 0,0 l/m 0 min 2 min 13 W/m 18,8 km/h (3 Bft)
27.04.2015 07:26 7,3 C 7,2 C 97 % 1004,9 hPa 0,0 l/m 0 min 2 min 16 W/m 25,1 km/h (4 Bft)
27.04.2015 07:28 7,3 C 7,2 C 97 % 1004,8 hPa 0,0 l/m 0 min 2 min 16 W/m 16,7 km/h (3 Bft)
27.04.2015 07:30 7,3 C 7,2 C 97 % 1004,9 hPa 0,0 l/m 0 min 2 min 16 W/m 23,0 km/h (4 Bft)
27.04.2015 07:32 7,3 C 6,7 C 97 % 1005,0 hPa 0,0 l/m 0 min 2 min 18 W/m 27,2 km/h (4 Bft)
27.04.2015 07:34 7,3 C 7,2 C 97 % 1004,9 hPa 0,0 l/m 0 min 2 min 17 W/m 18,8 km/h (3 Bft)
27.04.2015 07:36 7,2 C 7,2 C 97 % 1004,9 hPa 0,0 l/m 0 min 2 min 16 W/m 23,0 km/h (4 Bft)
27.04.2015 07:38 7,2 C 7,2 C 97 % 1004,9 hPa 0,0 l/m 0 min 2 min 18 W/m 20,9 km/h (4 Bft)
27.04.2015 07:40 7,2 C 7,2 C 97 % 1004,9 hPa 0,0 l/m 0 min 2 min 18 W/m 23,0 km/h (4 Bft)
27.04.2015 07:42 7,2 C 7,2 C 97 % 1005,0 hPa 0,0 l/m 0 min 2 min 20 W/m 18,8 km/h (3 Bft)
27.04.2015 07:44 7,2 C 7,2 C 97 % 1005,0 hPa 0,0 l/m 0 min 2 min 19 W/m 20,9 km/h (4 Bft)
27.04.2015 07:46 7,2 C 6,7 C 97 % 1005,0 hPa 0,0 l/m 0 min 2 min 19 W/m 20,9 km/h (4 Bft)
27.04.2015 07:48 7,2 C 6,7 C 97 % 1005,0 hPa 0,0 l/m 0 min 2 min 21 W/m 23,0 km/h (4 Bft)
27.04.2015 07:50 7,2 C 6,7 C 97 % 1005,0 hPa 0,0 l/m 0 min 2 min 24 W/m 25,1 km/h (4 Bft)
27.04.2015 07:52 7,2 C 6,7 C 97 % 1005,1 hPa 0,0 l/m 0 min 2 min 31 W/m 23,0 km/h (4 Bft)
27.04.2015 07:54 7,2 C 6,7 C 97 % 1005,0 hPa 0,2 l/m 0 min 2 min 39 W/m 27,2 km/h (4 Bft)
27.04.2015 07:56 7,2 C 6,7 C 97 % 1005,0 hPa 0,0 l/m 0 min 2 min 40 W/m 29,3 km/h (5 Bft)
27.04.2015 07:58 7,2 C 6,7 C 97 % 1005,1 hPa 0,0 l/m 0 min 2 min 42 W/m 20,9 km/h (4 Bft)
27.04.2015 08:00 7,2 C 6,7 C 97 % 1005,0 hPa 0,0 l/m 0 min 2 min 44 W/m 23,0 km/h (4 Bft)
27.04.2015 08:02 7,2 C 6,7 C 97 % 1005,0 hPa 0,0 l/m 0 min 2 min 47 W/m 23,0 km/h (4 Bft)
27.04.2015 08:04 7,2 C 6,7 C 97 % 1005,1 hPa 0,0 l/m 0 min 2 min 57 W/m 25,1 km/h (4 Bft)
27.04.2015 08:06 7,1 C 7,2 C 97 % 1005,0 hPa 0,0 l/m 0 min 2 min 54 W/m 25,1 km/h (4 Bft)
27.04.2015 08:08 7,2 C 7,2 C 97 % 1005,0 hPa 0,0 l/m 0 min 2 min 60 W/m 27,2 km/h (4 Bft)
27.04.2015 08:10 7,2 C 7,2 C 97 % 1005,1 hPa 0,0 l/m 0 min 2 min 50 W/m 29,3 km/h (5 Bft)
27.04.2015 08:12 7,2 C 7,2 C 97 % 1005,1 hPa 0,0 l/m 0 min 2 min 67 W/m 25,1 km/h (4 Bft)
27.04.2015 08:14 7,2 C 7,2 C 97 % 1005,1 hPa 0,0 l/m 0 min 2 min 70 W/m 31,4 km/h (5 Bft)
27.04.2015 08:16 7,1 C 6,7 C 97 % 1005,1 hPa 0,0 l/m 0 min 2 min 60 W/m 27,2 km/h (4 Bft)
27.04.2015 08:18 7,1 C 6,7 C 97 % 1005,1 hPa 0,0 l/m 0 min 0 min 54 W/m 25,1 km/h (4 Bft)
27.04.2015 08:20 7,1 C 6,7 C 97 % 1005,2 hPa 0,0 l/m 0 min 2 min 49 W/m 27,2 km/h (4 Bft)
27.04.2015 08:22 7,1 C 6,7 C 97 % 1005,2 hPa 0,0 l/m 0 min 2 min 51 W/m 25,1 km/h (4 Bft)
27.04.2015 08:24 7,1 C 6,7 C 97 % 1005,2 hPa 0,0 l/m 0 min 2 min 47 W/m 31,4 km/h (5 Bft)
27.04.2015 08:26 7,1 C 6,7 C 97 % 1005,2 hPa 0,0 l/m 0 min 2 min 41 W/m 23,0 km/h (4 Bft)
27.04.2015 08:28 7,1 C 6,7 C 97 % 1005,2 hPa 0,0 l/m 0 min 2 min 37 W/m 23,0 km/h (4 Bft)
27.04.2015 08:30 7,1 C 6,7 C 97 % 1005,2 hPa 0,0 l/m 0 min 2 min 39 W/m 16,7 km/h (3 Bft)
27.04.2015 08:32 7,1 C 6,7 C 97 % 1005,3 hPa 0,0 l/m 0 min 0 min 38 W/m 25,1 km/h (4 Bft)
27.04.2015 08:34 7,1 C 6,7 C 97 % 1005,4 hPa 0,0 l/m 0 min 0 min 40 W/m 20,9 km/h (4 Bft)
27.04.2015 08:36 7,1 C 6,7 C 97 % 1005,5 hPa 0,0 l/m 0 min 0 min 44 W/m 29,3 km/h (5 Bft)
27.04.2015 08:38 7,1 C 6,7 C 97 % 1005,5 hPa 0,0 l/m 0 min 2 min 47 W/m 25,1 km/h (4 Bft)
27.04.2015 08:40 7,0 C 6,7 C 97 % 1005,5 hPa 0,0 l/m 0 min 2 min 47 W/m 16,7 km/h (3 Bft)
27.04.2015 08:42 7,0 C 6,7 C 97 % 1005,5 hPa 0,0 l/m 0 min 2 min 52 W/m 29,3 km/h (5 Bft)
27.04.2015 08:44 7,0 C 6,7 C 97 % 1005,4 hPa 0,0 l/m 0 min 0 min 63 W/m 14,6 km/h (3 Bft)
27.04.2015 08:46 7,0 C 6,7 C 97 % 1005,5 hPa 0,0 l/m 0 min 0 min 65 W/m 27,2 km/h (4 Bft)
27.04.2015 08:48 7,0 C 6,7 C 97 % 1005,5 hPa 0,0 l/m 0 min 0 min 57 W/m 16,7 km/h (3 Bft)
27.04.2015 08:50 7,0 C 6,7 C 97 % 1005,5 hPa 0,0 l/m 0 min 0 min 62 W/m 20,9 km/h (4 Bft)
27.04.2015 08:52 7,0 C 6,7 C 97 % 1005,5 hPa 0,0 l/m 0 min 0 min 85 W/m 23,0 km/h (4 Bft)
27.04.2015 08:54 7,1 C 7,2 C 97 % 1005,5 hPa 0,0 l/m 0 min 0 min 90 W/m 29,3 km/h (5 Bft)
27.04.2015 08:56 7,1 C 6,7 C 97 % 1005,5 hPa 0,0 l/m 0 min 0 min 77 W/m 23,0 km/h (4 Bft)
27.04.2015 08:58 7,1 C 6,7 C 97 % 1005,6 hPa 0,0 l/m 0 min 0 min 78 W/m 25,1 km/h (4 Bft)
27.04.2015 09:00 7,1 C 6,7 C 97 % 1005,5 hPa 0,0 l/m 0 min 0 min 84 W/m 27,2 km/h (4 Bft)
27.04.2015 09:02 7,1 C 6,7 C 97 % 1005,5 hPa 0,0 l/m 0 min 0 min 101 W/m 23,0 km/h (4 Bft)
27.04.2015 09:04 7,1 C 6,7 C 97 % 1005,5 hPa 0,0 l/m 0 min 0 min 93 W/m 25,1 km/h (4 Bft)
27.04.2015 09:06 7,1 C 7,2 C 97 % 1005,6 hPa 0,0 l/m 0 min 0 min 99 W/m 23,0 km/h (4 Bft)
27.04.2015 09:08 7,2 C 7,2 C 97 % 1005,6 hPa 0,0 l/m 0 min 0 min 112 W/m 16,7 km/h (3 Bft)
27.04.2015 09:10 7,2 C 7,2 C 97 % 1005,6 hPa 0,0 l/m 0 min 0 min 116 W/m 18,8 km/h (3 Bft)
27.04.2015 09:12 7,2 C 7,2 C 97 % 1005,7 hPa 0,0 l/m 0 min 0 min 106 W/m 20,9 km/h (4 Bft)
27.04.2015 09:14 7,2 C 7,2 C 97 % 1005,7 hPa 0,0 l/m 0 min 0 min 92 W/m 20,9 km/h (4 Bft)
27.04.2015 09:16 7,2 C 7,2 C 97 % 1005,7 hPa 0,0 l/m 0 min 0 min 95 W/m 20,9 km/h (4 Bft)
27.04.2015 09:18 7,3 C 7,2 C 97 % 1005,7 hPa 0,0 l/m 0 min 0 min 98 W/m 14,6 km/h (3 Bft)
27.04.2015 09:20 7,3 C 7,2 C 97 % 1005,7 hPa 0,0 l/m 0 min 0 min 99 W/m 16,7 km/h (3 Bft)
27.04.2015 09:22 7,3 C 7,2 C 97 % 1005,7 hPa 0,0 l/m 0 min 0 min 100 W/m 16,7 km/h (3 Bft)
27.04.2015 09:24 7,3 C 7,2 C 97 % 1005,8 hPa 0,0 l/m 0 min 0 min 95 W/m 18,8 km/h (3 Bft)
27.04.2015 09:26 7,3 C 7,2 C 97 % 1005,8 hPa 0,0 l/m 0 min 0 min 100 W/m 23,0 km/h (4 Bft)
27.04.2015 09:28 7,3 C 7,2 C 97 % 1005,8 hPa 0,0 l/m 0 min 0 min 110 W/m 18,8 km/h (3 Bft)
27.04.2015 09:30 7,3 C 7,2 C 97 % 1005,8 hPa 0,0 l/m 0 min 0 min 101 W/m 25,1 km/h (4 Bft)
27.04.2015 09:32 7,3 C 7,2 C 97 % 1005,9 hPa 0,0 l/m 0 min 0 min 101 W/m 27,2 km/h (4 Bft)
27.04.2015 09:34 7,3 C 7,2 C 97 % 1005,9 hPa 0,0 l/m 0 min 0 min 126 W/m 18,8 km/h (3 Bft)
27.04.2015 09:36 7,3 C 7,2 C 97 % 1006,0 hPa 0,0 l/m 0 min 0 min 141 W/m 23,0 km/h (4 Bft)
27.04.2015 09:38 7,3 C 7,2 C 97 % 1006,0 hPa 0,0 l/m 0 min 0 min 128 W/m 25,1 km/h (4 Bft)
27.04.2015 09:40 7,3 C 7,2 C 97 % 1006,0 hPa 0,0 l/m 0 min 0 min 132 W/m 29,3 km/h (5 Bft)
27.04.2015 09:42 7,4 C 7,2 C 97 % 1006,0 hPa 0,0 l/m 0 min 0 min 141 W/m 20,9 km/h (4 Bft)
27.04.2015 09:44 7,4 C 7,2 C 96 % 1006,0 hPa 0,0 l/m 0 min 0 min 139 W/m 20,9 km/h (4 Bft)
27.04.2015 09:46 7,4 C 7,2 C 96 % 1006,0 hPa 0,0 l/m 0 min 0 min 151 W/m 29,3 km/h (5 Bft)
27.04.2015 09:48 7,4 C 7,2 C 96 % 1006,0 hPa 0,0 l/m 0 min 0 min 181 W/m 25,1 km/h (4 Bft)
27.04.2015 09:50 7,5 C 7,2 C 96 % 1006,1 hPa 0,0 l/m 0 min 0 min 215 W/m 27,2 km/h (4 Bft)
27.04.2015 09:52 7,5 C 7,8 C 96 % 1006,1 hPa 0,0 l/m 0 min 0 min 219 W/m 27,2 km/h (4 Bft)
27.04.2015 09:54 7,6 C 7,8 C 96 % 1006,1 hPa 0,0 l/m 0 min 0 min 177 W/m 27,2 km/h (4 Bft)
27.04.2015 09:56 7,7 C 7,8 C 96 % 1006,1 hPa 0,0 l/m 0 min 0 min 180 W/m 20,9 km/h (4 Bft)
27.04.2015 09:58 7,7 C 7,8 C 96 % 1006,1 hPa 0,0 l/m 0 min 0 min 152 W/m 25,1 km/h (4 Bft)
27.04.2015 10:00 7,7 C 7,8 C 96 % 1006,1 hPa 0,0 l/m 0 min 0 min 148 W/m 23,0 km/h (4 Bft)
27.04.2015 10:02 7,8 C 7,8 C 96 % 1006,1 hPa 0,0 l/m 0 min 0 min 200 W/m 23,0 km/h (4 Bft)
27.04.2015 10:04 7,8 C 7,8 C 96 % 1006,1 hPa 0,0 l/m 0 min 0 min 191 W/m 37,7 km/h (5 Bft)
27.04.2015 10:06 7,8 C 7,8 C 96 % 1006,1 hPa 0,0 l/m 0 min 0 min 194 W/m 25,1 km/h (4 Bft)
27.04.2015 10:08 7,8 C 7,8 C 96 % 1006,2 hPa 0,0 l/m 0 min 0 min 233 W/m 27,2 km/h (4 Bft)
27.04.2015 10:10 7,9 C 7,8 C 95 % 1006,2 hPa 0,0 l/m 0 min 0 min 220 W/m 25,1 km/h (4 Bft)
27.04.2015 10:12 7,9 C 7,8 C 95 % 1006,2 hPa 0,0 l/m 0 min 0 min 192 W/m 18,8 km/h (3 Bft)
27.04.2015 10:14 7,9 C 7,8 C 95 % 1006,2 hPa 0,0 l/m 0 min 0 min 184 W/m 27,2 km/h (4 Bft)
27.04.2015 10:16 8,0 C 7,8 C 95 % 1006,3 hPa 0,0 l/m 0 min 0 min 201 W/m 25,1 km/h (4 Bft)
27.04.2015 10:18 8,0 C 7,8 C 95 % 1006,4 hPa 0,0 l/m 0 min 0 min 205 W/m 27,2 km/h (4 Bft)
27.04.2015 10:20 8,1 C 7,8 C 95 % 1006,3 hPa 0,0 l/m 0 min 0 min 198 W/m 20,9 km/h (4 Bft)
27.04.2015 10:22 8,1 C 7,8 C 94 % 1006,3 hPa 0,0 l/m 0 min 0 min 194 W/m 23,0 km/h (4 Bft)
27.04.2015 10:24 8,1 C 7,8 C 94 % 1006,4 hPa 0,0 l/m 0 min 0 min 199 W/m 25,1 km/h (4 Bft)
27.04.2015 10:26 8,1 C 8,3 C 94 % 1006,4 hPa 0,0 l/m 0 min 0 min 222 W/m 27,2 km/h (4 Bft)
27.04.2015 10:28 8,1 C 8,3 C 94 % 1006,4 hPa 0,0 l/m 0 min 0 min 228 W/m 23,0 km/h (4 Bft)
27.04.2015 10:30 8,2 C 8,3 C 93 % 1006,4 hPa 0,0 l/m 0 min 0 min 231 W/m 25,1 km/h (4 Bft)
27.04.2015 10:32 8,2 C 7,8 C 93 % 1006,4 hPa 0,0 l/m 0 min 0 min 236 W/m 35,6 km/h (5 Bft)
27.04.2015 10:34 8,2 C 8,3 C 93 % 1006,4 hPa 0,0 l/m 0 min 0 min 243 W/m 27,2 km/h (4 Bft)
27.04.2015 10:36 8,3 C 8,3 C 93 % 1006,4 hPa 0,0 l/m 0 min 0 min 244 W/m 29,3 km/h (5 Bft)
27.04.2015 10:38 8,3 C 8,3 C 92 % 1006,4 hPa 0,0 l/m 0 min 0 min 267 W/m 27,2 km/h (4 Bft)
27.04.2015 10:40 8,3 C 8,3 C 92 % 1006,5 hPa 0,0 l/m 0 min 0 min 278 W/m 18,8 km/h (3 Bft)
27.04.2015 10:42 8,4 C 8,3 C 92 % 1006,5 hPa 0,0 l/m 0 min 0 min 283 W/m 29,3 km/h (5 Bft)
27.04.2015 10:44 8,4 C 8,3 C 92 % 1006,5 hPa 0,0 l/m 0 min 0 min 262 W/m 27,2 km/h (4 Bft)
27.04.2015 10:46 8,5 C 8,3 C 91 % 1006,5 hPa 0,0 l/m 0 min 0 min 307 W/m 27,2 km/h (4 Bft)
27.04.2015 10:48 8,6 C 8,9 C 91 % 1006,5 hPa 0,0 l/m 0 min 0 min 286 W/m 25,1 km/h (4 Bft)
27.04.2015 10:50 8,7 C 8,9 C 91 % 1006,6 hPa 0,0 l/m 0 min 0 min 246 W/m 20,9 km/h (4 Bft)
27.04.2015 10:52 8,7 C 8,9 C 91 % 1006,6 hPa 0,0 l/m 0 min 0 min 208 W/m 29,3 km/h (5 Bft)
27.04.2015 10:54 8,7 C 8,9 C 91 % 1006,6 hPa 0,0 l/m 0 min 0 min 230 W/m 25,1 km/h (4 Bft)
27.04.2015 10:56 8,8 C 8,9 C 91 % 1006,6 hPa 0,0 l/m 0 min 0 min 253 W/m 27,2 km/h (4 Bft)
27.04.2015 10:58 8,8 C 8,9 C 90 % 1006,6 hPa 0,0 l/m 0 min 0 min 275 W/m 31,4 km/h (5 Bft)
27.04.2015 11:00 8,8 C 8,9 C 90 % 1006,7 hPa 0,0 l/m 0 min 0 min 297 W/m 29,3 km/h (5 Bft)
27.04.2015 11:02 8,8 C 8,9 C 89 % 1006,7 hPa 0,0 l/m 0 min 0 min 317 W/m 25,1 km/h (4 Bft)
27.04.2015 11:04 8,9 C 8,9 C 89 % 1006,7 hPa 0,0 l/m 0 min 0 min 313 W/m 20,9 km/h (4 Bft)
27.04.2015 11:06 8,9 C 8,9 C 89 % 1006,6 hPa 0,0 l/m 2 min 0 min 332 W/m 25,1 km/h (4 Bft)
27.04.2015 11:08 8,9 C 8,9 C 88 % 1006,7 hPa 0,0 l/m 0 min 0 min 268 W/m 27,2 km/h (4 Bft)
27.04.2015 11:10 9,0 C 8,9 C 88 % 1006,7 hPa 0,0 l/m 0 min 0 min 217 W/m 23,0 km/h (4 Bft)
27.04.2015 11:12 9,1 C 8,9 C 88 % 1006,7 hPa 0,0 l/m 0 min 0 min 190 W/m 23,0 km/h (4 Bft)
27.04.2015 11:14 9,1 C 8,9 C 88 % 1006,8 hPa 0,0 l/m 0 min 0 min 202 W/m 33,5 km/h (5 Bft)
27.04.2015 11:16 9,1 C 8,3 C 87 % 1006,9 hPa 0,0 l/m 0 min 0 min 220 W/m 33,5 km/h (5 Bft)
27.04.2015 11:18 9,0 C 8,3 C 86 % 1006,9 hPa 0,0 l/m 0 min 0 min 275 W/m 35,6 km/h (5 Bft)
27.04.2015 11:20 9,0 C 8,3 C 85 % 1006,8 hPa 0,0 l/m 0 min 0 min 300 W/m 33,5 km/h (5 Bft)
27.04.2015 11:22 9,1 C 8,3 C 85 % 1006,9 hPa 0,0 l/m 0 min 0 min 297 W/m 29,3 km/h (5 Bft)
27.04.2015 11:24 9,1 C 8,3 C 84 % 1006,9 hPa 0,0 l/m 0 min 0 min 274 W/m 39,7 km/h (6 Bft)
27.04.2015 11:26 9,1 C 8,3 C 84 % 1007,0 hPa 0,0 l/m 0 min 0 min 253 W/m 27,2 km/h (4 Bft)
27.04.2015 11:28 9,1 C 8,3 C 84 % 1007,0 hPa 0,0 l/m 0 min 0 min 253 W/m 18,8 km/h (3 Bft)
27.04.2015 11:30 9,2 C 8,9 C 84 % 1006,9 hPa 0,0 l/m 0 min 0 min 252 W/m 18,8 km/h (3 Bft)
27.04.2015 11:32 9,2 C 8,9 C 85 % 1007,0 hPa 0,0 l/m 0 min 0 min 287 W/m 20,9 km/h (4 Bft)
27.04.2015 11:34 9,3 C 8,9 C 85 % 1006,9 hPa 0,0 l/m 0 min 0 min 272 W/m 23,0 km/h (4 Bft)
27.04.2015 11:36 9,3 C 8,9 C 85 % 1006,9 hPa 0,0 l/m 0 min 0 min 250 W/m 29,3 km/h (5 Bft)
27.04.2015 11:38 9,3 C 8,9 C 85 % 1007,0 hPa 0,0 l/m 0 min 0 min 242 W/m 31,4 km/h (5 Bft)
27.04.2015 11:40 9,3 C 8,9 C 84 % 1007,1 hPa 0,0 l/m 0 min 0 min 229 W/m 31,4 km/h (5 Bft)
27.04.2015 11:42 9,3 C 8,9 C 84 % 1007,1 hPa 0,0 l/m 0 min 0 min 207 W/m 31,4 km/h (5 Bft)
27.04.2015 11:44 9,3 C 8,3 C 83 % 1007,1 hPa 0,0 l/m 0 min 0 min 197 W/m 29,3 km/h (5 Bft)
27.04.2015 11:46 9,2 C 8,3 C 83 % 1007,2 hPa 0,0 l/m 0 min 0 min 206 W/m 33,5 km/h (5 Bft)
27.04.2015 11:48 9,2 C 8,3 C 82 % 1007,2 hPa 0,0 l/m 0 min 0 min 242 W/m 33,5 km/h (5 Bft)
27.04.2015 11:50 9,2 C 8,3 C 82 % 1007,3 hPa 0,0 l/m 0 min 0 min 243 W/m 27,2 km/h (4 Bft)
27.04.2015 11:52 9,2 C 8,3 C 82 % 1007,3 hPa 0,0 l/m 0 min 0 min 224 W/m 35,6 km/h (5 Bft)
27.04.2015 11:54 9,3 C 8,9 C 82 % 1007,4 hPa 0,0 l/m 0 min 0 min 216 W/m 29,3 km/h (5 Bft)
27.04.2015 11:56 9,3 C 8,3 C 82 % 1007,3 hPa 0,0 l/m 0 min 0 min 209 W/m 25,1 km/h (4 Bft)
27.04.2015 11:58 9,3 C 8,3 C 82 % 1007,5 hPa 0,0 l/m 0 min 0 min 217 W/m 27,2 km/h (4 Bft)
27.04.2015 12:00 9,3 C 8,3 C 82 % 1007,4 hPa 0,0 l/m 0 min 0 min 187 W/m 27,2 km/h (4 Bft)
27.04.2015 12:02 9,3 C 8,3 C 82 % 1007,4 hPa 0,0 l/m 0 min 0 min 179 W/m 23,0 km/h (4 Bft)
27.04.2015 12:06 9,3 C 8,3 C 82 % 1007,4 hPa 0,0 l/m 0 min 0 min 199 W/m 31,4 km/h (5 Bft)
27.04.2015 12:08 9,2 C 8,3 C 81 % 1007,2 hPa 0,0 l/m 0 min 0 min 231 W/m 27,2 km/h (4 Bft)
27.04.2015 12:10 9,3 C 8,9 C 81 % 1007,3 hPa 0,0 l/m 0 min 0 min 224 W/m 35,6 km/h (5 Bft)
27.04.2015 12:12 9,3 C 8,3 C 81 % 1007,3 hPa 0,0 l/m 0 min 0 min 206 W/m 35,6 km/h (5 Bft)
27.04.2015 12:14 9,3 C 8,9 C 81 % 1007,3 hPa 0,0 l/m 0 min 0 min 219 W/m 27,2 km/h (4 Bft)
27.04.2015 12:16 9,3 C 8,9 C 81 % 1007,3 hPa 0,0 l/m 0 min 0 min 220 W/m 33,5 km/h (5 Bft)
27.04.2015 12:18 9,3 C 8,3 C 81 % 1007,2 hPa 0,0 l/m 0 min 0 min 213 W/m 23,0 km/h (4 Bft)
27.04.2015 12:20 9,3 C 8,9 C 80 % 1007,2 hPa 0,0 l/m 0 min 0 min 215 W/m 29,3 km/h (5 Bft)
27.04.2015 12:22 9,4 C 8,9 C 80 % 1007,3 hPa 0,0 l/m 0 min 0 min 195 W/m 16,7 km/h (3 Bft)
27.04.2015 12:24 9,4 C 8,9 C 80 % 1007,2 hPa 0,0 l/m 0 min 0 min 184 W/m 18,8 km/h (3 Bft)
27.04.2015 12:26 9,4 C 8,9 C 81 % 1007,2 hPa 0,0 l/m 0 min 0 min 176 W/m 29,3 km/h (5 Bft)
27.04.2015 12:28 9,4 C 8,9 C 80 % 1007,3 hPa 0,0 l/m 0 min 0 min 192 W/m 25,1 km/h (4 Bft)
27.04.2015 12:30 9,4 C 8,9 C 80 % 1007,4 hPa 0,0 l/m 0 min 0 min 232 W/m 29,3 km/h (5 Bft)
27.04.2015 12:32 9,4 C 8,9 C 80 % 1007,4 hPa 0,0 l/m 0 min 0 min 276 W/m 25,1 km/h (4 Bft)
27.04.2015 12:34 9,5 C 8,9 C 80 % 1007,3 hPa 0,0 l/m 0 min 0 min 277 W/m 27,2 km/h (4 Bft)
27.04.2015 12:36 9,6 C 8,9 C 79 % 1007,3 hPa 0,0 l/m 0 min 0 min 243 W/m 25,1 km/h (4 Bft)
27.04.2015 12:38 9,6 C 8,9 C 79 % 1007,3 hPa 0,0 l/m 0 min 0 min 224 W/m 25,1 km/h (4 Bft)
27.04.2015 12:40 9,6 C 8,9 C 79 % 1007,4 hPa 0,0 l/m 0 min 0 min 231 W/m 33,5 km/h (5 Bft)
27.04.2015 12:42 9,6 C 8,9 C 78 % 1007,3 hPa 0,0 l/m 0 min 0 min 239 W/m 31,4 km/h (5 Bft)
27.04.2015 12:44 9,6 C 8,9 C 78 % 1007,4 hPa 0,0 l/m 0 min 0 min 213 W/m 25,1 km/h (4 Bft)
27.04.2015 12:46 9,7 C 8,9 C 78 % 1007,4 hPa 0,0 l/m 0 min 0 min 202 W/m 27,2 km/h (4 Bft)
27.04.2015 12:48 9,7 C 8,9 C 78 % 1007,3 hPa 0,0 l/m 0 min 0 min 203 W/m 31,4 km/h (5 Bft)
27.04.2015 12:50 9,7 C 8,9 C 77 % 1007,4 hPa 0,0 l/m 0 min 0 min 212 W/m 27,2 km/h (4 Bft)
27.04.2015 12:52 9,7 C 8,9 C 77 % 1007,4 hPa 0,0 l/m 0 min 0 min 237 W/m 25,1 km/h (4 Bft)
27.04.2015 12:54 9,7 C 8,9 C 77 % 1007,4 hPa 0,0 l/m 0 min 0 min 264 W/m 25,1 km/h (4 Bft)
27.04.2015 12:56 9,7 C 8,9 C 77 % 1007,3 hPa 0,0 l/m 0 min 0 min 270 W/m 25,1 km/h (4 Bft)
27.04.2015 12:58 9,8 C 8,9 C 77 % 1007,4 hPa 0,0 l/m 0 min 0 min 244 W/m 27,2 km/h (4 Bft)
27.04.2015 13:00 9,8 C 8,9 C 77 % 1007,4 hPa 0,0 l/m 0 min 0 min 232 W/m 18,8 km/h (3 Bft)
27.04.2015 13:02 9,8 C 8,9 C 78 % 1007,4 hPa 0,0 l/m 0 min 0 min 221 W/m 27,2 km/h (4 Bft)
27.04.2015 13:04 9,9 C 8,9 C 78 % 1007,5 hPa 0,0 l/m 0 min 0 min 208 W/m 27,2 km/h (4 Bft)
27.04.2015 13:06 9,9 C 8,9 C 77 % 1007,4 hPa 0,0 l/m 0 min 0 min 192 W/m 25,1 km/h (4 Bft)
27.04.2015 13:08 9,9 C 8,9 C 77 % 1007,4 hPa 0,0 l/m 0 min 0 min 180 W/m 18,8 km/h (3 Bft)
27.04.2015 13:10 9,9 C 8,9 C 77 % 1007,4 hPa 0,0 l/m 0 min 0 min 173 W/m 27,2 km/h (4 Bft)
27.04.2015 13:12 9,9 C 8,9 C 77 % 1007,4 hPa 0,0 l/m 0 min 0 min 173 W/m 29,3 km/h (5 Bft)
27.04.2015 13:14 9,9 C 8,9 C 76 % 1007,3 hPa 0,0 l/m 0 min 0 min 179 W/m 23,0 km/h (4 Bft)
27.04.2015 13:16 9,9 C 8,9 C 77 % 1007,4 hPa 0,0 l/m 0 min 0 min 180 W/m 25,1 km/h (4 Bft)
27.04.2015 13:18 9,9 C 8,9 C 76 % 1007,4 hPa 0,0 l/m 0 min 0 min 193 W/m 29,3 km/h (5 Bft)
27.04.2015 13:20 9,9 C 8,9 C 76 % 1007,4 hPa 0,0 l/m 0 min 0 min 209 W/m 25,1 km/h (4 Bft)
27.04.2015 13:22 9,9 C 8,9 C 76 % 1007,3 hPa 0,0 l/m 0 min 0 min 201 W/m 29,3 km/h (5 Bft)
27.04.2015 13:24 9,9 C 8,9 C 76 % 1007,4 hPa 0,0 l/m 0 min 0 min 201 W/m 18,8 km/h (3 Bft)
27.04.2015 13:26 9,9 C 8,9 C 76 % 1007,4 hPa 0,0 l/m 0 min 0 min 216 W/m 29,3 km/h (5 Bft)
27.04.2015 13:28 9,9 C 8,9 C 76 % 1007,4 hPa 0,0 l/m 0 min 0 min 229 W/m 31,4 km/h (5 Bft)
27.04.2015 13:30 9,9 C 8,9 C 76 % 1007,4 hPa 0,0 l/m 0 min 0 min 218 W/m 27,2 km/h (4 Bft)
27.04.2015 13:32 9,9 C 8,9 C 76 % 1007,4 hPa 0,0 l/m 0 min 0 min 227 W/m 20,9 km/h (4 Bft)
27.04.2015 13:34 10,0 C 9,4 C 76 % 1007,4 hPa 0,0 l/m 0 min 0 min 246 W/m 27,2 km/h (4 Bft)
27.04.2015 13:36 10,0 C 9,4 C 76 % 1007,4 hPa 0,0 l/m 0 min 0 min 242 W/m 29,3 km/h (5 Bft)
27.04.2015 13:38 10,1 C 9,4 C 76 % 1007,3 hPa 0,0 l/m 0 min 0 min 212 W/m 20,9 km/h (4 Bft)
27.04.2015 13:40 10,1 C 9,4 C 76 % 1007,4 hPa 0,0 l/m 0 min 0 min 189 W/m 31,4 km/h (5 Bft)
27.04.2015 13:42 10,1 C 8,9 C 76 % 1007,4 hPa 0,0 l/m 0 min 0 min 176 W/m 23,0 km/h (4 Bft)
27.04.2015 13:44 10,1 C 8,9 C 76 % 1007,4 hPa 0,0 l/m 0 min 0 min 164 W/m 25,1 km/h (4 Bft)
27.04.2015 13:46 10,1 C 8,9 C 76 % 1007,5 hPa 0,0 l/m 0 min 0 min 159 W/m 23,0 km/h (4 Bft)
27.04.2015 13:48 10,1 C 8,9 C 76 % 1007,4 hPa 0,0 l/m 0 min 0 min 154 W/m 20,9 km/h (4 Bft)
27.04.2015 13:50 10,1 C 8,9 C 76 % 1007,5 hPa 0,0 l/m 0 min 0 min 145 W/m 23,0 km/h (4 Bft)
27.04.2015 13:52 10,1 C 8,9 C 75 % 1007,5 hPa 0,0 l/m 0 min 0 min 137 W/m 29,3 km/h (5 Bft)
27.04.2015 13:54 10,0 C 8,9 C 75 % 1007,5 hPa 0,0 l/m 0 min 0 min 131 W/m 27,2 km/h (4 Bft)
27.04.2015 13:56 10,0 C 8,9 C 75 % 1007,5 hPa 0,0 l/m 0 min 0 min 133 W/m 20,9 km/h (4 Bft)
27.04.2015 13:58 10,0 C 8,9 C 75 % 1007,6 hPa 0,0 l/m 0 min 0 min 153 W/m 18,8 km/h (3 Bft)
27.04.2015 14:00 9,9 C 8,9 C 75 % 1007,6 hPa 0,0 l/m 0 min 0 min 176 W/m 31,4 km/h (5 Bft)
27.04.2015 14:02 9,9 C 8,9 C 75 % 1007,6 hPa 0,0 l/m 0 min 0 min 186 W/m 23,0 km/h (4 Bft)
27.04.2015 14:04 9,9 C 8,9 C 75 % 1007,6 hPa 0,0 l/m 0 min 0 min 180 W/m 27,2 km/h (4 Bft)
27.04.2015 14:06 9,9 C 8,9 C 75 % 1007,7 hPa 0,0 l/m 0 min 0 min 183 W/m 20,9 km/h (4 Bft)
27.04.2015 14:08 9,9 C 8,9 C 75 % 1007,7 hPa 0,0 l/m 0 min 0 min 190 W/m 23,0 km/h (4 Bft)
27.04.2015 14:10 10,0 C 8,9 C 75 % 1007,7 hPa 0,0 l/m 0 min 0 min 204 W/m 31,4 km/h (5 Bft)
27.04.2015 14:12 9,9 C 8,9 C 75 % 1007,8 hPa 0,0 l/m 0 min 0 min 215 W/m 27,2 km/h (4 Bft)
27.04.2015 14:14 9,9 C 8,9 C 75 % 1007,7 hPa 0,0 l/m 0 min 0 min 220 W/m 31,4 km/h (5 Bft)
27.04.2015 14:16 10,0 C 8,9 C 75 % 1007,8 hPa 0,0 l/m 0 min 0 min 223 W/m 27,2 km/h (4 Bft)
27.04.2015 14:18 10,0 C 9,4 C 75 % 1007,8 hPa 0,0 l/m 0 min 0 min 228 W/m 16,7 km/h (3 Bft)
27.04.2015 14:20 10,1 C 9,4 C 75 % 1007,8 hPa 0,0 l/m 0 min 0 min 232 W/m 18,8 km/h (3 Bft)
27.04.2015 14:22 10,1 C 9,4 C 75 % 1007,8 hPa 0,0 l/m 0 min 0 min 241 W/m 25,1 km/h (4 Bft)
27.04.2015 14:24 10,1 C 9,4 C 75 % 1007,8 hPa 0,0 l/m 0 min 0 min 246 W/m 27,2 km/h (4 Bft)
27.04.2015 14:26 10,2 C 9,4 C 75 % 1007,8 hPa 0,0 l/m 0 min 0 min 256 W/m 25,1 km/h (4 Bft)
27.04.2015 14:28 10,2 C 9,4 C 74 % 1007,9 hPa 0,0 l/m 0 min 0 min 250 W/m 27,2 km/h (4 Bft)
27.04.2015 14:30 10,2 C 9,4 C 74 % 1007,8 hPa 0,0 l/m 0 min 0 min 250 W/m 27,2 km/h (4 Bft)
27.04.2015 14:32 10,2 C 9,4 C 74 % 1007,8 hPa 0,0 l/m 0 min 0 min 275 W/m 25,1 km/h (4 Bft)
27.04.2015 14:34 10,2 C 9,4 C 74 % 1007,8 hPa 0,0 l/m 0 min 0 min 281 W/m 25,1 km/h (4 Bft)
27.04.2015 14:36 10,3 C 9,4 C 74 % 1007,9 hPa 0,0 l/m 0 min 0 min 276 W/m 23,0 km/h (4 Bft)
27.04.2015 14:38 10,3 C 9,4 C 74 % 1007,8 hPa 0,0 l/m 0 min 0 min 265 W/m 18,8 km/h (3 Bft)
27.04.2015 14:40 10,3 C 9,4 C 74 % 1007,8 hPa 0,0 l/m 0 min 0 min 270 W/m 23,0 km/h (4 Bft)
27.04.2015 14:42 10,4 C 9,4 C 74 % 1007,8 hPa 0,0 l/m 0 min 0 min 269 W/m 18,8 km/h (3 Bft)
27.04.2015 14:44 10,4 C 10,0 C 75 % 1007,8 hPa 0,0 l/m 0 min 0 min 214 W/m 31,4 km/h (5 Bft)
27.04.2015 14:46 10,4 C 9,4 C 73 % 1007,9 hPa 0,0 l/m 0 min 0 min 170 W/m 29,3 km/h (5 Bft)
27.04.2015 14:48 10,4 C 9,4 C 73 % 1007,9 hPa 0,0 l/m 0 min 0 min 147 W/m 27,2 km/h (4 Bft)
27.04.2015 14:50 10,4 C 8,9 C 72 % 1007,9 hPa 0,0 l/m 0 min 0 min 143 W/m 29,3 km/h (5 Bft)
27.04.2015 14:52 10,3 C 8,9 C 72 % 1007,9 hPa 0,0 l/m 0 min 0 min 146 W/m 20,9 km/h (4 Bft)
27.04.2015 14:54 10,3 C 8,9 C 73 % 1007,9 hPa 0,0 l/m 0 min 0 min 140 W/m 20,9 km/h (4 Bft)
27.04.2015 14:56 10,3 C 8,9 C 72 % 1007,9 hPa 0,0 l/m 0 min 0 min 138 W/m 23,0 km/h (4 Bft)
27.04.2015 14:58 10,3 C 8,9 C 72 % 1007,8 hPa 0,0 l/m 0 min 0 min 143 W/m 20,9 km/h (4 Bft)
27.04.2015 15:00 10,3 C 8,9 C 72 % 1007,8 hPa 0,0 l/m 0 min 0 min 144 W/m 20,9 km/h (4 Bft)
27.04.2015 15:02 10,3 C 8,9 C 73 % 1007,8 hPa 0,0 l/m 0 min 0 min 133 W/m 23,0 km/h (4 Bft)
27.04.2015 15:04 10,3 C 8,9 C 72 % 1007,8 hPa 0,0 l/m 0 min 0 min 124 W/m 25,1 km/h (4 Bft)
27.04.2015 15:06 10,3 C 8,9 C 72 % 1007,8 hPa 0,0 l/m 0 min 0 min 120 W/m 25,1 km/h (4 Bft)
27.04.2015 15:08 10,3 C 8,9 C 72 % 1007,9 hPa 0,0 l/m 0 min 0 min 125 W/m 25,1 km/h (4 Bft)
27.04.2015 15:10 10,2 C 8,9 C 72 % 1007,9 hPa 0,0 l/m 0 min 0 min 122 W/m 25,1 km/h (4 Bft)
27.04.2015 15:12 10,2 C 8,9 C 72 % 1007,9 hPa 0,0 l/m 0 min 0 min 123 W/m 20,9 km/h (4 Bft)
27.04.2015 15:14 10,2 C 8,9 C 72 % 1007,9 hPa 0,0 l/m 0 min 0 min 131 W/m 18,8 km/h (3 Bft)
27.04.2015 15:16 10,2 C 8,9 C 73 % 1007,8 hPa 0,0 l/m 0 min 0 min 147 W/m 18,8 km/h (3 Bft)
27.04.2015 15:18 10,2 C 8,9 C 73 % 1007,8 hPa 0,0 l/m 0 min 0 min 164 W/m 16,7 km/h (3 Bft)
27.04.2015 15:20 10,3 C 9,4 C 73 % 1007,8 hPa 0,0 l/m 0 min 0 min 176 W/m 16,7 km/h (3 Bft)
27.04.2015 15:22 10,3 C 9,4 C 73 % 1007,8 hPa 0,0 l/m 0 min 0 min 186 W/m 25,1 km/h (4 Bft)
27.04.2015 15:24 10,3 C 9,4 C 72 % 1007,8 hPa 0,0 l/m 0 min 0 min 193 W/m 27,2 km/h (4 Bft)
27.04.2015 15:26 10,3 C 9,4 C 72 % 1007,8 hPa 0,0 l/m 0 min 0 min 204 W/m 27,2 km/h (4 Bft)
27.04.2015 15:28 10,3 C 9,4 C 72 % 1007,7 hPa 0,0 l/m 0 min 0 min 212 W/m 18,8 km/h (3 Bft)
27.04.2015 15:30 10,3 C 9,4 C 71 % 1007,7 hPa 0,0 l/m 0 min 0 min 225 W/m 18,8 km/h (3 Bft)
27.04.2015 15:32 10,4 C 9,4 C 71 % 1007,7 hPa 0,0 l/m 0 min 0 min 237 W/m 20,9 km/h (4 Bft)
27.04.2015 15:34 10,4 C 9,4 C 71 % 1007,7 hPa 0,0 l/m 0 min 0 min 243 W/m 20,9 km/h (4 Bft)
27.04.2015 15:36 10,4 C 9,4 C 71 % 1007,7 hPa 0,0 l/m 0 min 0 min 246 W/m 16,7 km/h (3 Bft)
27.04.2015 15:38 10,6 C 10,0 C 71 % 1007,7 hPa 0,0 l/m 0 min 0 min 250 W/m 23,0 km/h (4 Bft)
27.04.2015 15:40 10,6 C 10,0 C 71 % 1007,7 hPa 0,0 l/m 0 min 0 min 263 W/m 23,0 km/h (4 Bft)
27.04.2015 15:42 10,6 C 10,0 C 71 % 1007,7 hPa 0,0 l/m 0 min 0 min 271 W/m 16,7 km/h (3 Bft)
27.04.2015 15:44 10,7 C 10,0 C 70 % 1007,6 hPa 0,0 l/m 0 min 0 min 268 W/m 20,9 km/h (4 Bft)
27.04.2015 15:46 10,8 C 10,0 C 71 % 1007,7 hPa 0,0 l/m 0 min 0 min 274 W/m 23,0 km/h (4 Bft)
27.04.2015 15:48 10,8 C 10,0 C 71 % 1007,6 hPa 0,0 l/m 0 min 0 min 285 W/m 20,9 km/h (4 Bft)
27.04.2015 15:50 10,9 C 10,0 C 70 % 1007,6 hPa 0,0 l/m 0 min 0 min 288 W/m 18,8 km/h (3 Bft)
27.04.2015 15:52 10,9 C 10,0 C 70 % 1007,6 hPa 0,0 l/m 0 min 0 min 292 W/m 20,9 km/h (4 Bft)
27.04.2015 15:54 11,0 C 10,0 C 70 % 1007,6 hPa 0,0 l/m 0 min 0 min 310 W/m 18,8 km/h (3 Bft)
27.04.2015 15:56 11,1 C 10,0 C 69 % 1007,7 hPa 0,0 l/m 0 min 0 min 328 W/m 20,9 km/h (4 Bft)
27.04.2015 15:58 11,1 C 10,6 C 69 % 1007,7 hPa 0,0 l/m 0 min 0 min 316 W/m 20,9 km/h (4 Bft)
27.04.2015 16:00 11,1 C 10,6 C 69 % 1007,7 hPa 0,0 l/m 0 min 0 min 308 W/m 20,9 km/h (4 Bft)
27.04.2015 16:02 11,2 C 10,6 C 69 % 1007,7 hPa 0,0 l/m 0 min 0 min 310 W/m 18,8 km/h (3 Bft)
27.04.2015 16:04 11,2 C 10,6 C 68 % 1007,6 hPa 0,0 l/m 0 min 0 min 316 W/m 16,7 km/h (3 Bft)
27.04.2015 16:06 11,3 C 10,6 C 68 % 1007,6 hPa 0,0 l/m 2 min 0 min 335 W/m 18,8 km/h (3 Bft)
27.04.2015 16:08 11,3 C 10,6 C 67 % 1007,6 hPa 0,0 l/m 2 min 0 min 347 W/m 23,0 km/h (4 Bft)
27.04.2015 16:10 11,4 C 10,6 C 67 % 1007,6 hPa 0,0 l/m 2 min 0 min 351 W/m 18,8 km/h (3 Bft)
27.04.2015 16:12 11,4 C 10,6 C 67 % 1007,7 hPa 0,0 l/m 2 min 0 min 337 W/m 16,7 km/h (3 Bft)
27.04.2015 16:14 11,5 C 10,6 C 66 % 1007,6 hPa 0,0 l/m 2 min 0 min 321 W/m 16,7 km/h (3 Bft)
27.04.2015 16:16 11,5 C 10,6 C 65 % 1007,6 hPa 0,0 l/m 0 min 0 min 305 W/m 18,8 km/h (3 Bft)
27.04.2015 16:18 11,5 C 10,6 C 66 % 1007,6 hPa 0,0 l/m 0 min 0 min 298 W/m 20,9 km/h (4 Bft)
27.04.2015 16:20 11,5 C 10,6 C 65 % 1007,6 hPa 0,0 l/m 0 min 0 min 294 W/m 23,0 km/h (4 Bft)
27.04.2015 16:22 11,6 C 10,6 C 65 % 1007,5 hPa 0,0 l/m 0 min 0 min 295 W/m 16,7 km/h (3 Bft)
27.04.2015 16:24 11,6 C 10,6 C 65 % 1007,5 hPa 0,0 l/m 0 min 0 min 297 W/m 18,8 km/h (3 Bft)
27.04.2015 16:26 11,6 C 10,6 C 65 % 1007,5 hPa 0,0 l/m 0 min 0 min 300 W/m 20,9 km/h (4 Bft)
27.04.2015 16:28 11,6 C 10,6 C 65 % 1007,5 hPa 0,0 l/m 0 min 0 min 293 W/m 18,8 km/h (3 Bft)
27.04.2015 16:30 11,6 C 10,6 C 65 % 1007,6 hPa 0,0 l/m 0 min 0 min 287 W/m 12,6 km/h (3 Bft)
27.04.2015 16:32 11,7 C 10,6 C 65 % 1007,6 hPa 0,0 l/m 0 min 0 min 286 W/m 14,6 km/h (3 Bft)
27.04.2015 16:34 11,7 C 10,6 C 65 % 1007,6 hPa 0,0 l/m 0 min 0 min 288 W/m 20,9 km/h (4 Bft)
27.04.2015 16:36 11,7 C 10,6 C 66 % 1007,6 hPa 0,0 l/m 0 min 0 min 294 W/m 23,0 km/h (4 Bft)
27.04.2015 16:38 11,8 C 10,6 C 66 % 1007,5 hPa 0,0 l/m 2 min 0 min 300 W/m 16,7 km/h (3 Bft)
27.04.2015 16:40 11,8 C 10,6 C 65 % 1007,5 hPa 0,0 l/m 2 min 0 min 294 W/m 18,8 km/h (3 Bft)
27.04.2015 16:42 11,8 C 10,6 C 65 % 1007,5 hPa 0,0 l/m 0 min 0 min 283 W/m 16,7 km/h (3 Bft)
27.04.2015 16:44 11,9 C 10,6 C 66 % 1007,5 hPa 0,0 l/m 0 min 0 min 272 W/m 16,7 km/h (3 Bft)
27.04.2015 16:46 11,9 C 10,6 C 65 % 1007,5 hPa 0,0 l/m 0 min 0 min 260 W/m 18,8 km/h (3 Bft)
27.04.2015 16:48 11,9 C 10,6 C 64 % 1007,4 hPa 0,0 l/m 0 min 0 min 249 W/m 18,8 km/h (3 Bft)
27.04.2015 16:50 11,9 C 10,6 C 64 % 1007,4 hPa 0,0 l/m 0 min 0 min 241 W/m 23,0 km/h (4 Bft)
27.04.2015 16:52 11,9 C 10,6 C 63 % 1007,4 hPa 0,0 l/m 0 min 0 min 236 W/m 16,7 km/h (3 Bft)
27.04.2015 16:54 11,9 C 10,6 C 64 % 1007,4 hPa 0,0 l/m 0 min 0 min 236 W/m 20,9 km/h (4 Bft)
27.04.2015 16:56 11,9 C 10,6 C 64 % 1007,4 hPa 0,0 l/m 0 min 0 min 238 W/m 12,6 km/h (3 Bft)
27.04.2015 16:58 11,9 C 10,6 C 64 % 1007,3 hPa 0,0 l/m 0 min 0 min 240 W/m 27,2 km/h (4 Bft)
27.04.2015 17:00 11,9 C 10,6 C 62 % 1007,4 hPa 0,0 l/m 0 min 0 min 236 W/m 23,0 km/h (4 Bft)
27.04.2015 17:02 11,9 C 10,0 C 62 % 1007,4 hPa 0,0 l/m 0 min 0 min 229 W/m 14,6 km/h (3 Bft)
27.04.2015 17:04 11,8 C 10,0 C 62 % 1007,4 hPa 0,0 l/m 0 min 0 min 222 W/m 18,8 km/h (3 Bft)
27.04.2015 17:06 11,8 C 10,0 C 63 % 1007,4 hPa 0,0 l/m 0 min 0 min 216 W/m 16,7 km/h (3 Bft)
27.04.2015 17:08 11,8 C 10,0 C 62 % 1007,4 hPa 0,0 l/m 0 min 0 min 213 W/m 14,6 km/h (3 Bft)
27.04.2015 17:10 11,8 C 10,0 C 62 % 1007,4 hPa 0,0 l/m 0 min 0 min 212 W/m 18,8 km/h (3 Bft)
27.04.2015 17:12 11,7 C 10,0 C 62 % 1007,4 hPa 0,0 l/m 0 min 0 min 215 W/m 20,9 km/h (4 Bft)
27.04.2015 17:14 11,7 C 10,0 C 60 % 1007,5 hPa 0,0 l/m 0 min 0 min 219 W/m 29,3 km/h (5 Bft)
27.04.2015 17:16 11,7 C 10,0 C 60 % 1007,5 hPa 0,0 l/m 0 min 0 min 220 W/m 16,7 km/h (3 Bft)
27.04.2015 17:18 11,7 C 10,0 C 64 % 1007,5 hPa 0,0 l/m 0 min 0 min 216 W/m 18,8 km/h (3 Bft)
27.04.2015 17:20 11,8 C 10,6 C 65 % 1007,5 hPa 0,0 l/m 0 min 0 min 213 W/m 14,6 km/h (3 Bft)
27.04.2015 17:22 11,8 C 10,6 C 66 % 1007,5 hPa 0,0 l/m 0 min 0 min 211 W/m 16,7 km/h (3 Bft)
27.04.2015 17:24 11,8 C 10,6 C 65 % 1007,4 hPa 0,0 l/m 0 min 0 min 213 W/m 12,6 km/h (3 Bft)
27.04.2015 17:26 11,8 C 10,6 C 65 % 1007,4 hPa 0,0 l/m 0 min 0 min 217 W/m 16,7 km/h (3 Bft)
27.04.2015 17:28 11,9 C 10,6 C 64 % 1007,5 hPa 0,0 l/m 0 min 0 min 220 W/m 14,6 km/h (3 Bft)
27.04.2015 17:30 11,9 C 10,6 C 63 % 1007,5 hPa 0,0 l/m 0 min 0 min 216 W/m 12,6 km/h (3 Bft)
27.04.2015 17:32 11,9 C 10,6 C 63 % 1007,5 hPa 0,0 l/m 0 min 0 min 212 W/m 12,6 km/h (3 Bft)
27.04.2015 17:34 11,9 C 10,6 C 64 % 1007,5 hPa 0,0 l/m 0 min 0 min 204 W/m 12,6 km/h (3 Bft)
27.04.2015 17:36 11,9 C 10,6 C 64 % 1007,5 hPa 0,0 l/m 0 min 0 min 195 W/m 18,8 km/h (3 Bft)
27.04.2015 17:38 11,9 C 10,6 C 64 % 1007,5 hPa 0,0 l/m 0 min 0 min 189 W/m 10,5 km/h (2 Bft)
27.04.2015 17:40 11,9 C 10,6 C 64 % 1007,4 hPa 0,0 l/m 0 min 0 min 185 W/m 12,6 km/h (3 Bft)
27.04.2015 17:42 11,9 C 10,6 C 63 % 1007,4 hPa 0,0 l/m 0 min 0 min 182 W/m 18,8 km/h (3 Bft)
27.04.2015 17:44 11,9 C 10,6 C 62 % 1007,4 hPa 0,0 l/m 0 min 0 min 178 W/m 18,8 km/h (3 Bft)
27.04.2015 17:46 11,9 C 10,0 C 61 % 1007,5 hPa 0,0 l/m 0 min 0 min 173 W/m 23,0 km/h (4 Bft)
27.04.2015 17:48 11,9 C 10,0 C 60 % 1007,5 hPa 0,0 l/m 0 min 0 min 164 W/m 18,8 km/h (3 Bft)
27.04.2015 17:50 11,8 C 10,0 C 61 % 1007,5 hPa 0,0 l/m 0 min 0 min 154 W/m 14,6 km/h (3 Bft)
27.04.2015 17:52 11,8 C 10,0 C 61 % 1007,5 hPa 0,0 l/m 0 min 0 min 153 W/m 23,0 km/h (4 Bft)
27.04.2015 17:54 11,8 C 10,0 C 60 % 1007,4 hPa 0,0 l/m 0 min 0 min 154 W/m 18,8 km/h (3 Bft)
27.04.2015 17:56 11,8 C 10,0 C 60 % 1007,4 hPa 0,0 l/m 0 min 0 min 155 W/m 27,2 km/h (4 Bft)
27.04.2015 17:58 11,8 C 10,0 C 60 % 1007,4 hPa 0,0 l/m 0 min 0 min 152 W/m 25,1 km/h (4 Bft)
27.04.2015 18:00 11,8 C 10,0 C 60 % 1007,5 hPa 0,0 l/m 0 min 0 min 149 W/m 23,0 km/h (4 Bft)
27.04.2015 18:02 11,7 C 10,0 C 60 % 1007,5 hPa 0,0 l/m 0 min 0 min 144 W/m 23,0 km/h (4 Bft)
27.04.2015 18:06 11,7 C 10,0 C 61 % 1007,5 hPa 0,0 l/m 0 min 0 min 136 W/m 25,1 km/h (4 Bft)
27.04.2015 18:08 11,7 C 9,4 C 60 % 1007,5 hPa 0,0 l/m 0 min 0 min 130 W/m 23,0 km/h (4 Bft)
27.04.2015 18:10 11,6 C 9,4 C 61 % 1007,6 hPa 0,0 l/m 0 min 0 min 127 W/m 23,0 km/h (4 Bft)
27.04.2015 18:12 11,6 C 9,4 C 61 % 1007,5 hPa 0,0 l/m 0 min 0 min 122 W/m 23,0 km/h (4 Bft)
27.04.2015 18:14 11,6 C 9,4 C 61 % 1007,5 hPa 0,0 l/m 0 min 0 min 126 W/m 18,8 km/h (3 Bft)
27.04.2015 18:16 11,6 C 9,4 C 62 % 1007,5 hPa 0,0 l/m 0 min 0 min 132 W/m 18,8 km/h (3 Bft)
27.04.2015 18:18 11,6 C 9,4 C 62 % 1007,5 hPa 0,0 l/m 0 min 0 min 138 W/m 20,9 km/h (4 Bft)
27.04.2015 18:20 11,5 C 9,4 C 62 % 1007,6 hPa 0,0 l/m 0 min 0 min 139 W/m 16,7 km/h (3 Bft)
27.04.2015 18:22 11,5 C 9,4 C 62 % 1007,6 hPa 0,0 l/m 0 min 0 min 144 W/m 16,7 km/h (3 Bft)
27.04.2015 18:24 11,5 C 9,4 C 62 % 1007,6 hPa 0,0 l/m 0 min 0 min 148 W/m 18,8 km/h (3 Bft)
27.04.2015 18:26 11,5 C 9,4 C 61 % 1007,6 hPa 0,0 l/m 0 min 0 min 150 W/m 20,9 km/h (4 Bft)
27.04.2015 18:28 11,5 C 9,4 C 60 % 1007,6 hPa 0,0 l/m 0 min 0 min 149 W/m 20,9 km/h (4 Bft)
27.04.2015 18:30 11,5 C 9,4 C 60 % 1007,6 hPa 0,0 l/m 0 min 0 min 148 W/m 23,0 km/h (4 Bft)
27.04.2015 18:32 11,5 C 9,4 C 60 % 1007,6 hPa 0,0 l/m 0 min 0 min 146 W/m 20,9 km/h (4 Bft)
27.04.2015 18:34 11,5 C 9,4 C 61 % 1007,6 hPa 0,0 l/m 0 min 0 min 143 W/m 20,9 km/h (4 Bft)
27.04.2015 18:36 11,5 C 9,4 C 60 % 1007,6 hPa 0,0 l/m 0 min 0 min 140 W/m 27,2 km/h (4 Bft)
27.04.2015 18:38 11,5 C 9,4 C 59 % 1007,7 hPa 0,0 l/m 0 min 0 min 136 W/m 27,2 km/h (4 Bft)
27.04.2015 18:40 11,5 C 9,4 C 60 % 1007,7 hPa 0,0 l/m 0 min 0 min 133 W/m 16,7 km/h (3 Bft)
27.04.2015 18:42 11,4 C 9,4 C 60 % 1007,6 hPa 0,0 l/m 0 min 0 min 128 W/m 23,0 km/h (4 Bft)
27.04.2015 18:44 11,4 C 9,4 C 60 % 1007,6 hPa 0,0 l/m 0 min 0 min 126 W/m 20,9 km/h (4 Bft)
27.04.2015 18:46 11,4 C 9,4 C 59 % 1007,6 hPa 0,0 l/m 0 min 0 min 125 W/m 23,0 km/h (4 Bft)
27.04.2015 18:48 11,4 C 9,4 C 60 % 1007,6 hPa 0,0 l/m 0 min 0 min 125 W/m 20,9 km/h (4 Bft)
27.04.2015 18:50 11,4 C 9,4 C 60 % 1007,7 hPa 0,0 l/m 0 min 0 min 125 W/m 20,9 km/h (4 Bft)
27.04.2015 18:52 11,4 C 9,4 C 60 % 1007,6 hPa 0,0 l/m 0 min 0 min 123 W/m 27,2 km/h (4 Bft)
27.04.2015 18:54 11,4 C 9,4 C 59 % 1007,7 hPa 0,0 l/m 0 min 0 min 120 W/m 25,1 km/h (4 Bft)
27.04.2015 18:56 11,4 C 9,4 C 60 % 1007,6 hPa 0,0 l/m 0 min 0 min 116 W/m 18,8 km/h (3 Bft)
27.04.2015 18:58 11,4 C 9,4 C 60 % 1007,7 hPa 0,0 l/m 0 min 0 min 113 W/m 25,1 km/h (4 Bft)
27.04.2015 19:00 11,4 C 9,4 C 59 % 1007,6 hPa 0,0 l/m 0 min 0 min 109 W/m 18,8 km/h (3 Bft)
27.04.2015 19:02 11,4 C 9,4 C 60 % 1007,6 hPa 0,0 l/m 0 min 0 min 106 W/m 16,7 km/h (3 Bft)
27.04.2015 19:04 11,4 C 9,4 C 60 % 1007,6 hPa 0,0 l/m 0 min 0 min 105 W/m 16,7 km/h (3 Bft)
27.04.2015 19:06 11,4 C 9,4 C 60 % 1007,7 hPa 0,0 l/m 0 min 0 min 104 W/m 20,9 km/h (4 Bft)
27.04.2015 19:08 11,3 C 9,4 C 60 % 1007,7 hPa 0,0 l/m 0 min 0 min 101 W/m 14,6 km/h (3 Bft)
27.04.2015 19:10 11,3 C 9,4 C 61 % 1007,7 hPa 0,0 l/m 0 min 0 min 98 W/m 16,7 km/h (3 Bft)
27.04.2015 19:12 11,3 C 9,4 C 62 % 1007,6 hPa 0,0 l/m 0 min 0 min 97 W/m 14,6 km/h (3 Bft)
27.04.2015 19:14 11,3 C 9,4 C 62 % 1007,7 hPa 0,0 l/m 0 min 0 min 93 W/m 14,6 km/h (3 Bft)
27.04.2015 19:16 11,3 C 9,4 C 62 % 1007,6 hPa 0,0 l/m 0 min 0 min 89 W/m 14,6 km/h (3 Bft)
27.04.2015 19:18 11,3 C 9,4 C 61 % 1007,6 hPa 0,0 l/m 0 min 0 min 87 W/m 16,7 km/h (3 Bft)
27.04.2015 19:20 11,3 C 8,9 C 61 % 1007,7 hPa 0,0 l/m 0 min 0 min 83 W/m 14,6 km/h (3 Bft)
27.04.2015 19:22 11,3 C 8,9 C 62 % 1007,6 hPa 0,0 l/m 0 min 0 min 80 W/m 16,7 km/h (3 Bft)
27.04.2015 19:24 11,3 C 8,9 C 61 % 1007,6 hPa 0,0 l/m 0 min 0 min 77 W/m 16,7 km/h (3 Bft)
27.04.2015 19:26 11,2 C 8,9 C 61 % 1007,6 hPa 0,0 l/m 0 min 0 min 77 W/m 16,7 km/h (3 Bft)
27.04.2015 19:28 11,2 C 8,9 C 62 % 1007,7 hPa 0,0 l/m 0 min 0 min 76 W/m 12,6 km/h (3 Bft)
27.04.2015 19:30 11,2 C 8,9 C 61 % 1007,7 hPa 0,0 l/m 0 min 0 min 76 W/m 14,6 km/h (3 Bft)
27.04.2015 19:32 11,2 C 8,9 C 61 % 1007,7 hPa 0,0 l/m 0 min 0 min 74 W/m 16,7 km/h (3 Bft)
27.04.2015 19:34 11,2 C 8,9 C 61 % 1007,7 hPa 0,0 l/m 0 min 0 min 72 W/m 10,5 km/h (2 Bft)
27.04.2015 19:36 11,2 C 8,9 C 62 % 1007,7 hPa 0,0 l/m 0 min 0 min 69 W/m 10,5 km/h (2 Bft)
27.04.2015 19:38 11,2 C 8,9 C 62 % 1007,7 hPa 0,0 l/m 0 min 0 min 64 W/m 14,6 km/h (3 Bft)
27.04.2015 19:40 11,2 C 8,9 C 62 % 1007,7 hPa 0,0 l/m 0 min 0 min 62 W/m 14,6 km/h (3 Bft)
27.04.2015 19:42 11,1 C 8,9 C 62 % 1007,8 hPa 0,0 l/m 0 min 0 min 61 W/m 14,6 km/h (3 Bft)
27.04.2015 19:44 11,1 C 8,9 C 63 % 1007,8 hPa 0,0 l/m 0 min 0 min 59 W/m 6,3 km/h (2 Bft)
27.04.2015 19:46 11,1 C 8,9 C 63 % 1007,8 hPa 0,0 l/m 0 min 0 min 57 W/m 8,4 km/h (2 Bft)
27.04.2015 19:48 11,1 C 8,9 C 64 % 1007,9 hPa 0,0 l/m 0 min 0 min 54 W/m 6,3 km/h (2 Bft)
27.04.2015 19:50 11,1 C 8,9 C 65 % 1007,9 hPa 0,0 l/m 0 min 0 min 54 W/m 6,3 km/h (2 Bft)
27.04.2015 19:52 11,1 C 8,9 C 65 % 1008,0 hPa 0,0 l/m 0 min 0 min 53 W/m 6,3 km/h (2 Bft)
27.04.2015 19:54 11,1 C 8,9 C 66 % 1008,0 hPa 0,0 l/m 0 min 0 min 49 W/m 4,2 km/h (1 Bft)
27.04.2015 19:56 11,1 C 8,9 C 66 % 1008,0 hPa 0,0 l/m 0 min 0 min 46 W/m 6,3 km/h (2 Bft)
27.04.2015 19:58 11,1 C 8,9 C 67 % 1008,0 hPa 0,0 l/m 0 min 0 min 43 W/m 8,4 km/h (2 Bft)
27.04.2015 20:00 11,1 C 8,9 C 68 % 1008,0 hPa 0,0 l/m 0 min 0 min 41 W/m 8,4 km/h (2 Bft)
27.04.2015 20:02 11,0 C 8,9 C 68 % 1008,0 hPa 0,0 l/m 0 min 0 min 39 W/m 6,3 km/h (2 Bft)
27.04.2015 20:04 11,0 C 8,9 C 68 % 1008,0 hPa 0,0 l/m 0 min 0 min 37 W/m 8,4 km/h (2 Bft)
27.04.2015 20:06 10,9 C 8,9 C 67 % 1008,1 hPa 0,0 l/m 0 min 0 min 37 W/m 6,3 km/h (2 Bft)
27.04.2015 20:08 10,9 C 8,9 C 67 % 1008,1 hPa 0,0 l/m 0 min 0 min 37 W/m 6,3 km/h (2 Bft)
27.04.2015 20:10 10,9 C 8,9 C 67 % 1008,0 hPa 0,0 l/m 0 min 0 min 37 W/m 12,6 km/h (3 Bft)
27.04.2015 20:12 10,9 C 8,3 C 67 % 1008,1 hPa 0,0 l/m 0 min 0 min 37 W/m 8,4 km/h (2 Bft)
27.04.2015 20:14 10,8 C 8,3 C 67 % 1008,1 hPa 0,0 l/m 0 min 0 min 37 W/m 8,4 km/h (2 Bft)
27.04.2015 20:16 10,8 C 8,3 C 67 % 1008,1 hPa 0,0 l/m 2 min 0 min 39 W/m 4,2 km/h (1 Bft)
27.04.2015 20:18 10,8 C 8,3 C 67 % 1008,1 hPa 0,0 l/m 2 min 0 min 40 W/m 6,3 km/h (2 Bft)
27.04.2015 20:20 10,7 C 8,3 C 67 % 1008,1 hPa 0,0 l/m 2 min 0 min 39 W/m 6,3 km/h (2 Bft)
27.04.2015 20:22 10,7 C 8,3 C 68 % 1008,2 hPa 0,0 l/m 2 min 0 min 37 W/m 6,3 km/h (2 Bft)
27.04.2015 20:24 10,7 C 8,3 C 68 % 1008,2 hPa 0,0 l/m 2 min 0 min 35 W/m 6,3 km/h (2 Bft)
27.04.2015 20:26 10,7 C 8,3 C 68 % 1008,1 hPa 0,0 l/m 2 min 0 min 33 W/m 6,3 km/h (2 Bft)
27.04.2015 20:28 10,7 C 8,3 C 69 % 1008,2 hPa 0,0 l/m 2 min 0 min 29 W/m 6,3 km/h (2 Bft)
27.04.2015 20:30 10,6 C 8,3 C 69 % 1008,2 hPa 0,0 l/m 2 min 0 min 26 W/m 6,3 km/h (2 Bft)
27.04.2015 20:32 10,6 C 8,3 C 69 % 1008,2 hPa 0,0 l/m 2 min 0 min 24 W/m 6,3 km/h (2 Bft)
27.04.2015 20:34 10,6 C 8,3 C 69 % 1008,2 hPa 0,0 l/m 2 min 0 min 21 W/m 6,3 km/h (2 Bft)
27.04.2015 20:36 10,6 C 8,3 C 70 % 1008,2 hPa 0,0 l/m 2 min 0 min 19 W/m 6,3 km/h (2 Bft)
27.04.2015 20:38 10,5 C 7,8 C 70 % 1008,3 hPa 0,0 l/m 0 min 0 min 18 W/m 6,3 km/h (2 Bft)
27.04.2015 20:40 10,5 C 7,8 C 70 % 1008,3 hPa 0,0 l/m 0 min 0 min 18 W/m 6,3 km/h (2 Bft)
27.04.2015 20:42 10,4 C 7,8 C 70 % 1008,3 hPa 0,0 l/m 0 min 0 min 17 W/m 4,2 km/h (1 Bft)
27.04.2015 20:44 10,4 C 7,8 C 71 % 1008,3 hPa 0,0 l/m 0 min 0 min 16 W/m 6,3 km/h (2 Bft)
27.04.2015 20:46 10,4 C 7,8 C 71 % 1008,4 hPa 0,0 l/m 0 min 0 min 15 W/m 6,3 km/h (2 Bft)
27.04.2015 20:48 10,3 C 7,8 C 71 % 1008,4 hPa 0,0 l/m 0 min 0 min 14 W/m 4,2 km/h (1 Bft)
27.04.2015 20:50 10,3 C 7,8 C 71 % 1008,5 hPa 0,0 l/m 0 min 0 min 12 W/m 8,4 km/h (2 Bft)
27.04.2015 20:52 10,2 C 7,8 C 70 % 1008,5 hPa 0,0 l/m 0 min 0 min 12 W/m 8,4 km/h (2 Bft)
27.04.2015 20:54 10,2 C 7,8 C 69 % 1008,5 hPa 0,0 l/m 0 min 0 min 11 W/m 12,6 km/h (3 Bft)
27.04.2015 20:56 10,1 C 7,8 C 69 % 1008,5 hPa 0,0 l/m 0 min 0 min 11 W/m 10,5 km/h (2 Bft)
27.04.2015 20:58 10,1 C 7,8 C 69 % 1008,5 hPa 0,0 l/m 0 min 0 min 10 W/m 8,4 km/h (2 Bft)
27.04.2015 21:00 10,0 C 7,8 C 69 % 1008,6 hPa 0,0 l/m 0 min 0 min 8 W/m 8,4 km/h (2 Bft)
27.04.2015 21:02 10,0 C 7,8 C 69 % 1008,7 hPa 0,0 l/m 0 min 0 min 6 W/m 10,5 km/h (2 Bft)
27.04.2015 21:04 9,9 C 7,8 C 69 % 1008,7 hPa 0,0 l/m 0 min 0 min 2 W/m 8,4 km/h (2 Bft)
27.04.2015 21:06 9,9 C 7,8 C 70 % 1008,8 hPa 0,0 l/m 0 min 0 min 0 W/m 6,3 km/h (2 Bft)
27.04.2015 21:08 9,9 C 7,8 C 70 % 1008,8 hPa 0,0 l/m 0 min 0 min 0 W/m 6,3 km/h (2 Bft)
27.04.2015 21:10 9,9 C 7,8 C 70 % 1008,9 hPa 0,0 l/m 0 min 0 min 0 W/m 6,3 km/h (2 Bft)
27.04.2015 21:12 9,8 C 7,8 C 71 % 1008,8 hPa 0,0 l/m 0 min 0 min 0 W/m 4,2 km/h (1 Bft)
27.04.2015 21:14 9,8 C 7,8 C 71 % 1008,9 hPa 0,0 l/m 0 min 0 min 0 W/m 6,3 km/h (2 Bft)
27.04.2015 21:16 9,8 C 7,8 C 71 % 1008,9 hPa 0,0 l/m 0 min 0 min 0 W/m 8,4 km/h (2 Bft)
27.04.2015 21:18 9,7 C 7,8 C 72 % 1009,0 hPa 0,0 l/m 0 min 0 min 0 W/m 8,4 km/h (2 Bft)
27.04.2015 21:20 9,7 C 7,8 C 72 % 1009,0 hPa 0,0 l/m 0 min 0 min 0 W/m 8,4 km/h (2 Bft)
27.04.2015 21:22 9,6 C 7,8 C 72 % 1009,0 hPa 0,0 l/m 0 min 0 min 0 W/m 8,4 km/h (2 Bft)
27.04.2015 21:24 9,6 C 7,8 C 72 % 1009,0 hPa 0,0 l/m 0 min 0 min 0 W/m 6,3 km/h (2 Bft)
27.04.2015 21:26 9,6 C 7,8 C 72 % 1009,0 hPa 0,0 l/m 0 min 0 min 0 W/m 6,3 km/h (2 Bft)
27.04.2015 21:28 9,6 C 7,2 C 72 % 1009,1 hPa 0,0 l/m 0 min 0 min 0 W/m 10,5 km/h (2 Bft)
27.04.2015 21:30 9,5 C 7,2 C 72 % 1009,1 hPa 0,0 l/m 0 min 0 min 0 W/m 8,4 km/h (2 Bft)
27.04.2015 21:32 9,4 C 7,2 C 72 % 1009,0 hPa 0,0 l/m 0 min 0 min 0 W/m 12,6 km/h (3 Bft)
27.04.2015 21:34 9,4 C 7,2 C 72 % 1009,0 hPa 0,0 l/m 0 min 0 min 0 W/m 6,3 km/h (2 Bft)
27.04.2015 21:36 9,3 C 7,2 C 71 % 1009,0 hPa 0,0 l/m 0 min 0 min 0 W/m 8,4 km/h (2 Bft)
27.04.2015 21:38 9,3 C 7,2 C 71 % 1009,1 hPa 0,0 l/m 0 min 0 min 0 W/m 8,4 km/h (2 Bft)
27.04.2015 21:40 9,3 C 7,8 C 71 % 1009,1 hPa 0,0 l/m 0 min 0 min 0 W/m 8,4 km/h (2 Bft)
27.04.2015 21:42 9,3 C 7,8 C 72 % 1009,1 hPa 0,0 l/m 0 min 0 min 0 W/m 8,4 km/h (2 Bft)
27.04.2015 21:44 9,2 C 7,2 C 72 % 1009,1 hPa 0,0 l/m 0 min 0 min 0 W/m 8,4 km/h (2 Bft)
27.04.2015 21:46 9,2 C 7,2 C 72 % 1009,1 hPa 0,0 l/m 0 min 0 min 0 W/m 10,5 km/h (2 Bft)
27.04.2015 21:48 9,2 C 7,2 C 72 % 1009,1 hPa 0,0 l/m 0 min 0 min 0 W/m 10,5 km/h (2 Bft)
27.04.2015 21:50 9,2 C 7,2 C 72 % 1009,1 hPa 0,0 l/m 0 min 0 min 0 W/m 10,5 km/h (2 Bft)
27.04.2015 21:52 9,1 C 7,2 C 72 % 1009,1 hPa 0,0 l/m 0 min 0 min 0 W/m 10,5 km/h (2 Bft)
27.04.2015 21:54 9,1 C 7,2 C 72 % 1009,1 hPa 0,0 l/m 0 min 0 min 0 W/m 8,4 km/h (2 Bft)
27.04.2015 21:56 9,1 C 7,2 C 72 % 1009,2 hPa 0,0 l/m 0 min 0 min 0 W/m 10,5 km/h (2 Bft)
27.04.2015 21:58 9,1 C 7,2 C 73 % 1009,3 hPa 0,0 l/m 0 min 0 min 0 W/m 10,5 km/h (2 Bft)
27.04.2015 22:00 9,1 C 7,2 C 73 % 1009,3 hPa 0,0 l/m 0 min 0 min 0 W/m 8,4 km/h (2 Bft)
27.04.2015 22:02 9,0 C 7,2 C 73 % 1009,3 hPa 0,0 l/m 0 min 0 min 0 W/m 6,3 km/h (2 Bft)
27.04.2015 22:04 9,0 C 7,2 C 73 % 1009,4 hPa 0,0 l/m 0 min 0 min 0 W/m 6,3 km/h (2 Bft)
27.04.2015 22:06 9,0 C 7,2 C 73 % 1009,4 hPa 0,0 l/m 0 min 0 min 0 W/m 8,4 km/h (2 Bft)
27.04.2015 22:08 8,9 C 7,2 C 73 % 1009,4 hPa 0,0 l/m 0 min 0 min 0 W/m 6,3 km/h (2 Bft)
27.04.2015 22:10 8,9 C 7,2 C 73 % 1009,5 hPa 0,0 l/m 0 min 0 min 0 W/m 8,4 km/h (2 Bft)
27.04.2015 22:12 8,9 C 7,2 C 73 % 1009,5 hPa 0,0 l/m 0 min 0 min 0 W/m 6,3 km/h (2 Bft)
27.04.2015 22:14 8,9 C 7,2 C 73 % 1009,5 hPa 0,0 l/m 0 min 0 min 0 W/m 8,4 km/h (2 Bft)
27.04.2015 22:16 8,8 C 7,2 C 74 % 1009,5 hPa 0,0 l/m 0 min 0 min 0 W/m 10,5 km/h (2 Bft)
27.04.2015 22:18 8,8 C 7,2 C 74 % 1009,5 hPa 0,0 l/m 0 min 0 min 0 W/m 14,6 km/h (3 Bft)
27.04.2015 22:20 8,7 C 7,2 C 74 % 1009,5 hPa 0,0 l/m 0 min 0 min 0 W/m 12,6 km/h (3 Bft)
27.04.2015 22:22 8,7 C 6,7 C 74 % 1009,5 hPa 0,0 l/m 0 min 0 min 0 W/m 12,6 km/h (3 Bft)
27.04.2015 22:24 8,6 C 6,7 C 74 % 1009,5 hPa 0,0 l/m 0 min 0 min 0 W/m 18,8 km/h (3 Bft)
27.04.2015 22:26 8,6 C 6,7 C 73 % 1009,5 hPa 0,0 l/m 0 min 0 min 0 W/m 12,6 km/h (3 Bft)
27.04.2015 22:28 8,6 C 6,7 C 73 % 1009,5 hPa 0,0 l/m 0 min 0 min 0 W/m 10,5 km/h (2 Bft)
27.04.2015 22:30 8,5 C 6,7 C 73 % 1009,5 hPa 0,0 l/m 0 min 0 min 0 W/m 12,6 km/h (3 Bft)
27.04.2015 22:32 8,4 C 6,7 C 73 % 1009,5 hPa 0,0 l/m 0 min 0 min 0 W/m 12,6 km/h (3 Bft)
27.04.2015 22:34 8,4 C 6,7 C 73 % 1009,5 hPa 0,0 l/m 0 min 0 min 0 W/m 18,8 km/h (3 Bft)
27.04.2015 22:36 8,4 C 6,7 C 73 % 1009,5 hPa 0,0 l/m 0 min 0 min 0 W/m 14,6 km/h (3 Bft)
27.04.2015 22:38 8,3 C 6,7 C 73 % 1009,6 hPa 0,0 l/m 0 min 0 min 0 W/m 14,6 km/h (3 Bft)
27.04.2015 22:40 8,3 C 6,7 C 72 % 1009,6 hPa 0,0 l/m 0 min 0 min 0 W/m 20,9 km/h (4 Bft)
27.04.2015 22:42 8,3 C 6,7 C 72 % 1009,6 hPa 0,0 l/m 0 min 0 min 0 W/m 23,0 km/h (4 Bft)
27.04.2015 22:44 8,2 C 6,7 C 71 % 1009,5 hPa 0,0 l/m 0 min 0 min 0 W/m 20,9 km/h (4 Bft)
27.04.2015 22:46 8,2 C 6,7 C 71 % 1009,5 hPa 0,0 l/m 0 min 0 min 0 W/m 20,9 km/h (4 Bft)
27.04.2015 22:48 8,2 C 6,7 C 71 % 1009,6 hPa 0,0 l/m 0 min 0 min 0 W/m 16,7 km/h (3 Bft)
27.04.2015 22:50 8,1 C 6,7 C 71 % 1009,5 hPa 0,0 l/m 0 min 0 min 0 W/m 20,9 km/h (4 Bft)
27.04.2015 22:52 8,1 C 6,7 C 70 % 1009,6 hPa 0,0 l/m 0 min 0 min 0 W/m 20,9 km/h (4 Bft)
27.04.2015 22:54 8,1 C 6,7 C 70 % 1009,6 hPa 0,0 l/m 0 min 0 min 0 W/m 23,0 km/h (4 Bft)
27.04.2015 22:56 8,1 C 6,7 C 70 % 1009,6 hPa 0,0 l/m 0 min 0 min 0 W/m 18,8 km/h (3 Bft)
27.04.2015 22:58 8,0 C 6,7 C 70 % 1009,5 hPa 0,0 l/m 0 min 0 min 0 W/m 18,8 km/h (3 Bft)
27.04.2015 23:00 8,0 C 6,7 C 70 % 1009,6 hPa 0,0 l/m 0 min 0 min 0 W/m 14,6 km/h (3 Bft)
27.04.2015 23:02 7,9 C 6,1 C 70 % 1009,7 hPa 0,0 l/m 0 min 0 min 0 W/m 14,6 km/h (3 Bft)
27.04.2015 23:04 7,9 C 6,1 C 70 % 1009,7 hPa 0,0 l/m 0 min 0 min 0 W/m 16,7 km/h (3 Bft)
27.04.2015 23:06 7,9 C 6,1 C 70 % 1009,7 hPa 0,0 l/m 0 min 0 min 0 W/m 12,6 km/h (3 Bft)
27.04.2015 23:08 7,9 C 6,1 C 70 % 1009,7 hPa 0,0 l/m 0 min 0 min 0 W/m 12,6 km/h (3 Bft)
27.04.2015 23:10 7,8 C 6,1 C 71 % 1009,8 hPa 0,0 l/m 0 min 0 min 0 W/m 12,6 km/h (3 Bft)
27.04.2015 23:12 7,8 C 6,1 C 71 % 1009,8 hPa 0,0 l/m 0 min 0 min 0 W/m 10,5 km/h (2 Bft)
27.04.2015 23:14 7,8 C 6,1 C 71 % 1009,8 hPa 0,0 l/m 0 min 0 min 0 W/m 8,4 km/h (2 Bft)
27.04.2015 23:16 7,7 C 6,1 C 71 % 1009,8 hPa 0,0 l/m 0 min 0 min 0 W/m 6,3 km/h (2 Bft)
27.04.2015 23:18 7,7 C 6,1 C 71 % 1009,8 hPa 0,0 l/m 0 min 0 min 0 W/m 6,3 km/h (2 Bft)
27.04.2015 23:20 7,7 C 6,1 C 72 % 1009,8 hPa 0,0 l/m 0 min 0 min 0 W/m 6,3 km/h (2 Bft)
27.04.2015 23:22 7,7 C 6,1 C 72 % 1009,8 hPa 0,0 l/m 0 min 0 min 0 W/m 8,4 km/h (2 Bft)
27.04.2015 23:24 7,6 C 6,1 C 72 % 1009,9 hPa 0,0 l/m 0 min 0 min 0 W/m 6,3 km/h (2 Bft)
27.04.2015 23:26 7,6 C 6,1 C 72 % 1009,9 hPa 0,0 l/m 0 min 0 min 0 W/m 12,6 km/h (3 Bft)
27.04.2015 23:28 7,6 C 6,1 C 72 % 1009,9 hPa 0,0 l/m 0 min 0 min 0 W/m 10,5 km/h (2 Bft)
27.04.2015 23:30 7,5 C 6,1 C 72 % 1010,0 hPa 0,0 l/m 0 min 0 min 0 W/m 14,6 km/h (3 Bft)
27.04.2015 23:32 7,4 C 6,1 C 72 % 1009,9 hPa 0,0 l/m 0 min 0 min 0 W/m 14,6 km/h (3 Bft)
27.04.2015 23:34 7,3 C 6,1 C 72 % 1010,0 hPa 0,0 l/m 0 min 0 min 0 W/m 12,6 km/h (3 Bft)
27.04.2015 23:36 7,3 C 6,1 C 72 % 1010,0 hPa 0,0 l/m 0 min 0 min 0 W/m 14,6 km/h (3 Bft)
27.04.2015 23:38 7,2 C 6,1 C 72 % 1010,0 hPa 0,0 l/m 0 min 0 min 0 W/m 12,6 km/h (3 Bft)
27.04.2015 23:40 7,2 C 5,6 C 72 % 1010,0 hPa 0,0 l/m 0 min 0 min 0 W/m 14,6 km/h (3 Bft)
27.04.2015 23:42 7,2 C 6,1 C 72 % 1009,9 hPa 0,0 l/m 0 min 0 min 0 W/m 18,8 km/h (3 Bft)
27.04.2015 23:44 7,1 C 5,6 C 72 % 1010,0 hPa 0,0 l/m 0 min 0 min 0 W/m 10,5 km/h (2 Bft)
27.04.2015 23:46 7,1 C 5,6 C 72 % 1010,0 hPa 0,0 l/m 0 min 0 min 0 W/m 12,6 km/h (3 Bft)
27.04.2015 23:48 7,0 C 5,6 C 72 % 1010,0 hPa 0,0 l/m 0 min 0 min 0 W/m 8,4 km/h (2 Bft)
27.04.2015 23:50 7,0 C 5,6 C 72 % 1010,0 hPa 0,0 l/m 0 min 0 min 0 W/m 18,8 km/h (3 Bft)
27.04.2015 23:52 6,9 C 5,6 C 72 % 1010,0 hPa 0,0 l/m 0 min 0 min 0 W/m 16,7 km/h (3 Bft)
27.04.2015 23:54 6,9 C 5,6 C 72 % 1010,0 hPa 0,0 l/m 0 min 0 min 0 W/m 20,9 km/h (4 Bft)
27.04.2015 23:56 6,8 C 5,6 C 72 % 1010,1 hPa 0,0 l/m 0 min 0 min 0 W/m 14,6 km/h (3 Bft)
27.04.2015 23:58 6,8 C 5,6 C 72 % 1010,1 hPa 0,0 l/m 0 min 0 min 0 W/m 14,6 km/h (3 Bft)
_ Min-Zeit 23:56 23:40 18:38 03:34 - - - - 19:54
Minimum _ 6,8 C 5,6 C 59 % 1003,0 hPa - - - - 4,2 km/h (1 Bft)
_ Max-Zeit 00:00 00:00 02:18 23:56 00:42 11:06 00:00 16:10 11:24
Maximum _ 12,6 C 11,1 C 97 % 1010,1 hPa 0,4 l/m 2 min 2 min 351 W/m 39,7 km/h
N (6 Bft)
Durchschnitt _ 9,6 C 8,6 C 83 % 1006,3 hPa #10,8 l/m #38 min. #8:23 h 155 W/m 19,5 km/h (3 Bft)
© 2015 W. Hausmann